[{"header": {"dx": 0.06612293990616946, "dy": 0.0552356325346848, "nx": 98, "ny": 59, "la1": 35.046912555036876, "la2": 31.78801023549047, "lo1": -121.43107172385933, "lo2": -114.95102361305473, "refTime": "2026040908", "parameterCategory": 1, "parameterNumber": 2}, "data": [10.43, 10.43, 10.43, 11.03, 11.03, 11.03, 11.1, 11.1, 10.43, 10.43, 9.8, 9.3, 11.2, 11.18, 10.28, 10.73, -10.73, -7.59, 0.0, 0.0, 0.0, 4.2, 8.67, 8.94, 8.05, 7.15, 6.17, 6.17, 6.26, 6.26, 6.36, 5.75, 5.43, 5.82, 6.28, 5.86, 7.11, 7.15, 7.6, 7.47, 7.89, 9.13, 11.4, 11.6, 12.79, 13.58, 14.64, 14.61, 15.64, 13.51, 11.33, 6.97, 4.4, 5.32, 4.8, 5.69, 7.36, 8.75, 9.17, 9.67, 9.67, 10.16, 9.48, 8.59, 8.22, 8.22, 8.82, 10.04, 10.2, 11.09, 11.62, 11.14, 11.03, 10.75, 9.45, 8.8, 9.6, 11.62, -12.58, -12.52, -9.75, -6.4, -5.81, -5.2, -5.6, -3.22, 0.0, 2.69, 6.79, 8.0, 9.2, 9.43, 9.3, 10.04, 10.41, 10.81, 9.42, 9.36, 10.12, 10.43, 11.03, 11.03, 10.43, 11.1, 11.44, 11.44, 10.43, 10.43, 9.48, 9.17, 9.67, 9.6, 11.62, 11.18, 0.0, 0.0, 0.0, 0.0, 0.0, 2.49, 6.64, 8.67, 6.58, 6.61, 6.61, 6.58, 6.71, 6.58, 5.36, 5.37, 4.98, 5.2, 5.94, 7.08, 8.05, 8.05, 8.43, 8.48, 8.43, 9.3, 10.79, 10.63, 12.15, 13.07, 14.08, 14.49, 13.59, 11.31, 10.79, 5.0, 6.2, 4.8, 4.36, 5.92, 7.36, 8.75, 9.17, 9.17, 9.97, 9.67, 8.94, 8.82, 8.22, 8.82, 9.3, 10.04, 10.6, 10.96, 11.09, 11.36, 10.79, 10.46, 9.86, 8.99, 10.52, 11.62, -12.58, -12.52, -9.75, -6.4, -5.81, -5.2, -5.6, -3.22, 0.0, 2.69, 6.79, 8.0, 9.2, 9.43, 9.3, 10.04, 10.41, 10.81, 9.42, 9.36, 10.12, 11.03, 10.43, 10.43, 11.1, 11.1, 11.44, 10.75, 10.75, 10.12, 8.01, 6.42, 8.22, 9.67, 7.59, 7.59, 7.9, 0.0, 0.0, 0.0, 0.0, 0.0, 2.19, 4.6, 6.32, 6.79, 6.61, 6.71, 6.71, 6.79, 7.37, 6.94, 7.15, 7.6, 6.71, 8.49, 8.05, 8.89, 9.16, 9.63, 9.3, 9.8, 11.38, 12.17, 13.91, 14.22, 15.2, 14.53, 11.99, 10.58, 7.27, 7.9, 6.87, 5.32, 5.69, 6.71, 7.9, 8.75, 9.17, 9.67, 9.97, 9.67, 8.94, 8.75, 8.22, 8.75, 9.53, 9.89, 10.18, 10.04, 10.87, 11.6, 11.68, 10.7, 10.62, 10.2, 10.16, 13.23, 0.0, -13.41, -10.28, 8.05, -7.21, -5.75, -5.2, -5.72, -4.46, 0.0, 4.6, 8.18, 10.41, 10.66, 9.62, 9.27, 9.34, 8.79, 8.58, 8.91, 10.12, 10.12, 10.43, 10.43, 11.1, 11.1, 11.44, 10.75, 10.43, 9.8, 7.02, 6.24, 6.21, 6.71, 6.2, 7.9, 8.22, 5.4, 0.0, 0.0, 0.0, 0.0, 0.0, 1.64, 2.95, 6.95, 6.64, 7.06, 7.15, 7.6, 8.49, 6.32, 2.17, 2.83, 7.44, 8.4, 9.13, 10.75, 10.16, 10.99, 11.91, 12.73, 13.08, 12.43, 13.39, 13.95, 14.42, 11.18, 9.89, 8.8, 8.4, 7.56, 6.58, 5.98, 5.69, 6.44, 7.9, 8.75, 9.17, 9.67, 9.97, 9.67, 9.3, 8.22, 8.22, 8.69, 8.69, 9.0, 8.93, 9.84, 11.88, 13.52, 13.99, 12.2, 10.28, 9.74, 9.68, 13.41, 15.65, -13.01, -8.24, -5.6, -6.4, -5.94, -7.74, -8.77, -6.32, 0.0, 4.44, 9.26, 11.34, 9.96, 8.93, 8.73, 8.15, 9.33, 9.29, 8.73, 10.12, 10.12, 10.43, 10.43, 11.1, 11.1, 11.44, 10.75, 9.6, 9.8, 7.02, 5.32, 5.98, 6.71, 6.44, 6.97, 5.2, 6.7, 0.0, -2.37, -3.04, 0.0, 0.0, 0.0, 0.0, 2.19, 5.46, 8.4, 9.11, 8.33, 8.0, 4.4, 0.0, 0.0, 1.58, 5.0, 6.2, 9.17, 11.06, 12.38, 12.99, 12.9, 12.0, 12.89, 12.96, 11.78, 11.13, 10.7, 10.35, 10.08, 9.63, 7.9, 6.58, 5.98, 6.24, 7.27, 8.49, 8.82, 9.17, 9.97, 10.4, 9.3, 7.9, 7.36, 7.42, 8.69, 9.08, 8.69, 8.64, 9.27, 11.88, 14.58, 15.35, 14.69, 12.47, 8.6, 7.96, 11.11, 14.3, -12.39, -6.36, -4.8, -6.23, -6.88, -7.31, -6.79, 0.0, 4.0, 7.26, 10.12, 9.92, 9.76, 8.47, 8.0, 9.39, 9.39, 8.87, 8.8, 10.12, 10.12, 10.12, 10.43, 10.43, 11.1, 11.44, 10.43, 9.6, 8.05, 7.02, 5.1, 6.71, 6.44, 6.71, 5.75, 4.32, 4.48, 3.82, 0.0, -1.55, -1.33, 0.0, 0.0, 0.0, 0.0, 2.28, 4.15, 6.44, 8.58, 7.51, 6.64, 2.39, 1.33, 2.2, 3.25, 4.43, 8.15, 11.78, 11.89, 9.88, 10.12, 11.87, 12.52, 12.27, 12.47, 12.03, 11.62, 11.62, 11.18, 10.6, 8.24, 7.59, 6.87, 7.15, 8.93, 8.93, 8.93, 9.3, 9.97, 10.16, 9.09, 7.9, 7.9, 8.35, 8.73, 9.16, 8.07, 8.41, 9.43, 11.87, 13.72, 14.75, 15.69, 15.27, 13.86, 7.44, 5.69, 8.49, -11.71, -4.84, -4.47, -5.59, -6.8, -6.28, -1.4, 3.14, 7.82, 9.62, 8.78, 8.85, 8.85, 7.81, -6.79, -6.64, 9.26, 8.63, 9.75, 9.5, 10.12, 10.12, 9.71, 9.71, 10.43, 11.1, 9.71, 9.31, 8.05, 5.4, 3.45, 5.52, 6.44, 8.53, 5.75, 5.4, 5.6, 6.21, 4.93, 1.83, 0.0, -2.64, -1.42, 0.0, 0.0, 0.0, 1.77, 3.56, 2.95, 3.39, 4.2, 6.95, 5.9, 4.32, 3.36, 4.52, 6.73, 9.02, 9.48, 7.36, 5.8, 8.05, 10.47, 13.19, 11.97, 11.96, 11.33, 11.57, 12.07, 11.03, 8.38, 8.59, 7.9, 8.22, 8.22, 8.93, 8.93, 10.09, 10.55, 9.86, 9.09, 8.49, 8.58, 8.73, 8.58, 8.93, 9.1, 10.05, 10.28, 11.05, 11.95, 12.71, 14.99, 16.46, 15.56, 13.86, 8.49, 5.64, 9.64, -3.4, -2.06, -3.3, -3.87, -1.18, 1.77, 5.25, 7.89, 9.06, 8.1, 6.94, 3.82, -6.44, -7.28, 0.0, 7.44, 8.63, 9.6, 9.21, 9.5, 10.12, 9.42, 9.71, 10.43, 10.43, 9.71, 9.42, 7.11, 4.54, 1.93, 3.82, 5.75, 7.51, 6.98, 7.73, 8.3, 7.54, 9.48, 13.15, 13.41, 9.48, 1.73, 0.0, 0.0, 0.0, 0.0, 0.0, 0.0, 0.0, 0.0, 3.04, 6.44, 5.75, 4.81, 3.81, 4.3, 6.76, 7.44, 7.19, 5.46, 6.54, 7.6, 8.93, 10.12, 9.67, 10.38, 11.62, 11.45, 9.2, 8.73, 8.22, 8.93, 8.22, 8.22, 8.22, 8.82, 9.86, 9.86, 9.86, 9.1, 9.86, 9.86, 8.58, 8.38, 9.6, 9.97, 10.18, 10.73, 10.73, 11.18, 12.52, 14.28, 15.18, 15.18, 12.53, 10.99, 12.08, 14.26, 13.27, 0.0, 0.0, 0.0, 1.71, 4.1, 5.89, 7.44, 7.62, 7.41, 3.53, -6.26, -5.93, -8.49, 6.01, 6.91, 8.3, 8.3, 9.21, 9.5, 9.42, 9.42, 9.71, 10.43, 10.43, 10.43, 8.78, 7.19, 4.81, 2.82, 1.83, 3.73, 5.6, 6.21, 6.43, 7.11, 7.44, 9.48, 13.41, 13.41, 13.86, 13.57, 5.11, 1.58, 0.0, -2.28, -4.3, -2.02, 0.0, 0.0, 0.0, 2.72, 4.81, 5.2, 3.92, 3.53, 4.6, 5.45, 6.43, 5.81, 5.81, 3.96, 2.82, 0.0, 5.4, 11.18, 7.27, 6.7, 8.22, 6.7, 7.44, 8.22, 7.56, 8.22, 8.75, 8.82, 9.67, 10.16, 9.77, 9.8, 9.97, 9.55, 6.17, 7.27, 10.05, 10.47, 10.73, 10.73, 11.18, 11.18, 13.86, 14.73, 14.3, 13.41, 11.46, 11.36, 13.67, 15.96, 16.54, 1.42, 0.0, 1.47, 2.31, 4.17, 5.72, 6.84, 6.44, 5.9, -5.81, -4.84, -6.36, -2.54, 5.31, 6.79, 8.3, 7.69, 9.21, 9.21, 9.42, 9.42, 9.71, 10.43, 10.43, 9.8, 9.5, 7.43, 5.6, 5.11, 4.48, 3.41, 3.12, 3.25, 5.5, 4.34, 3.2, 3.25, 3.56, 6.43, 9.8, 10.99, 7.93, 3.68, 1.67, 0.0, -3.58, 0.0, 1.47, 1.37, 0.0, 0.0, 1.2, 3.07, 5.86, 4.98, 4.6, 4.0, 3.98, 3.14, 7.9, 9.39, -0.0, -0.0, -0.0, 3.25, 3.53, 2.7, 3.11, 5.7, 7.59, 7.9, 8.22, 8.75, 9.17, 9.97, 10.58, 10.92, 10.78, 9.92, 10.2, 7.28, 5.86, 8.03, 10.21, 10.5, 11.18, 11.46, 12.0, 11.62, 14.3, 14.75, 14.3, 12.96, 11.58, 11.02, 12.05, 14.75, 17.42, 16.51, 1.66, 1.84, 2.21, 4.2, 5.98, 6.58, 8.23, 8.94, -0.0, 5.36, -2.12, 0.0, 4.71, 7.06, 8.03, 6.68, 9.21, 9.21, 9.42, 9.71, 9.71, 10.43, 9.8, 10.43, 8.94, 8.38, 7.19, 7.13, 7.69, 5.9, 4.21, 4.52, 5.49, 4.38, 3.19, 2.68, 3.42, 3.59, 5.37, 6.24, 6.1, 4.1, 1.28, 0.0, -1.29, 0.0, 1.17, 2.72, 0.0, -2.42, -2.51, 0.0, 5.2, 6.4, 3.97, 5.95, -0.0, 4.4, 7.27, 4.4, 6.64, 6.01, 2.69, 2.06, 1.4, 1.47, 2.97, 6.64, 7.68, 8.37, 8.58, 8.82, 10.2, 11.45, 11.91, 11.58, 11.14, 9.83, 8.0, 7.33, 6.3, 8.15, 10.0, 10.8, 10.55, 11.45, 12.35, 12.07, 14.3, 14.3, 13.86, 13.84, 12.74, 10.6, 10.43, 12.14, 14.93, 16.08, 15.05, 4.81, 6.32, 6.4, 7.89, 7.89, 9.83, 8.24, 5.81, 2.26, 0.0, 0.0, 3.17, 6.68, 7.68, 6.39, 9.21, 9.21, 9.5, 9.71, 9.71, 9.8, 9.8, 10.43, 9.57, 8.49, 8.05, 8.05, 8.72, 8.94, 8.73, 7.09, 6.14, 6.32, 5.5, 4.76, 4.63, 4.69, 4.74, 4.73, 3.85, 5.11, 3.96, 2.06, 0.0, 0.0, 0.0, 1.1, 4.74, 0.0, -1.52, 0.0, 3.25, 3.91, 5.37, -0.0, -0.0, -0.0, 8.4, 9.39, 8.94, 8.05, 8.49, -0.0, 2.69, 4.0, 8.06, 8.77, 8.82, 8.48, 8.63, 8.48, 10.12, 12.03, 12.52, 10.25, 8.9, 8.46, 9.29, 6.95, 6.42, 8.58, 9.81, 10.43, 10.0, 9.83, 10.18, 11.6, 12.96, 12.48, 11.95, 13.18, 12.58, 10.55, 10.65, 11.37, 12.39, 13.05, 12.49, 11.8, 8.93, 9.21, 8.82, 9.26, 8.94, 8.94, 7.45, 6.08, 1.4, 0.95, 3.2, 6.64, 6.35, 5.37, 9.8, 9.21, 9.5, 9.06, 9.8, 9.8, 10.43, 9.57, 10.12, 9.32, 8.87, 8.72, 9.11, 9.49, 11.06, 11.49, 10.54, 8.59, 7.54, 7.6, 7.6, 8.29, 8.18, 9.48, 10.8, 10.68, 10.28, 8.91, 8.91, 7.12, 6.61, 6.26, 5.81, 5.73, 6.14, 2.8, 0.0, -3.4, -2.4, -0.0, -0.0, 7.15, 4.2, 7.44, 7.07, 4.46, 0.0, 0.0, 0.0, 2.69, 3.4, 4.83, 6.01, 6.13, 8.3, 8.4, 7.97, 10.28, 11.46, 7.28, 9.29, 9.83, 9.21, 6.64, 7.87, 10.18, 10.62, 10.8, 10.15, 10.73, 10.18, 9.33, 8.91, 9.35, 10.25, 11.62, 12.04, 10.8, 10.73, 10.04, 8.55, 8.63, 11.3, 12.72, 11.62, 11.62, 9.6, 9.33, 9.7, 8.49, 8.49, 7.01, 6.08, 3.0, 5.1, 7.35, 6.18, 5.06, 9.8, 9.21, 9.21, 9.5, 9.8, 9.5, 10.12, 10.12, 10.12, 10.12, 9.67, 9.67, 9.11, 9.95, 11.38, 12.49, 12.98, 12.16, 10.92, 10.54, 11.25, 12.13, 13.19, 15.18, 15.62, 15.62, 14.23, 14.24, 13.36, 12.39, 11.11, 9.83, 8.49, 6.26, 6.26, 2.8, -0.0, -0.0, -0.0, -0.0, 7.6, 0.0, 2.49, 5.0, 4.4, 4.4, 0.0, 0.0, 0.0, 0.0, 0.0, 1.76, 4.71, 6.2, 6.08, 5.2, 5.86, 7.63, 10.65, 7.6, 9.83, 10.28, 10.28, 8.8, 7.81, 9.54, 9.83, 10.2, 10.47, 9.13, 8.68, 8.68, 9.77, 9.77, 9.42, 10.0, 9.42, 9.03, 8.63, 8.6, 8.18, 7.06, 10.15, 11.69, 11.39, 11.72, 11.6, 9.2, 8.3, 7.5, 9.26, 7.52, 6.79, 5.59, 6.32, 7.13, 6.13, 6.0, 9.8, 9.21, 9.21, 9.5, 9.5, 9.5, 10.12, 10.12, 10.58, 10.12, 9.67, 9.97, 10.01, 10.34, 10.98, 12.09, 13.23, 13.76, 12.76, 12.4, 12.65, 13.1, 14.42, 15.41, 15.81, 16.47, 16.08, 15.65, 15.2, 14.75, 13.86, 12.5, 10.96, 7.5, 7.15, -0.0, -0.0, 1.84, 3.8, 5.06, 7.6, 7.6, 5.95, 4.8, 6.32, 8.94, 0.0, 0.0, 0.0, 0.0, 0.0, 2.82, 3.87, 3.8, 2.66, 1.25, 1.07, 5.53, 7.85, 8.48, -8.94, -6.64, 0.0, 0.0, 0.0, 1.93, 5.9, 8.43, 9.64, 8.72, 6.01, 8.32, 10.58, 10.47, 10.2, 9.33, 10.08, 10.08, 10.08, 10.14, 9.13, 8.18, 8.24, 9.74, 8.67, 10.12, 11.16, 9.58, 8.4, 8.33, 9.33, 7.81, 6.57, 6.99, 6.99, 6.79, 6.23, 6.23, 9.8, 9.8, 9.21, 9.5, 9.5, 9.5, 10.12, 10.12, 10.58, 10.54, 10.87, 10.43, 10.01, 10.75, 11.06, 11.76, 12.84, 13.59, 14.0, 13.76, 13.65, 13.87, 14.54, 15.69, 15.96, 16.3, 16.41, 16.08, 15.65, 15.2, 15.2, 15.19, 13.8, 11.55, 7.15, -0.0, 2.4, 3.4, 5.69, 7.2, 7.15, 6.4, 7.63, 8.05, 8.05, -0.0, -0.0, 8.05, 8.05, 0.0, 2.69, 3.4, 5.69, 8.05, 7.6, 5.06, 1.49, 4.37, 8.48, 9.39, -8.94, -9.39, 8.49, 0.0, 0.0, 0.0, 0.94, 3.49, 9.83, 6.64, 6.6, 9.68, 12.52, 11.55, 11.02, 5.0, 6.21, 8.53, 11.4, 10.73, 10.08, 9.64, 8.37, 8.06, 7.53, 6.9, 8.37, 7.87, 6.01, 6.44, 8.4, 5.95, 6.52, 6.99, 7.63, 6.16, 5.6, 5.6, 9.8, 9.8, 10.12, 9.21, 9.21, 10.12, 10.12, 10.43, 10.58, 10.54, 10.87, 10.84, 11.17, 11.17, 11.06, 11.88, 12.22, 13.23, 14.26, 14.64, 14.62, 14.56, 15.0, 15.41, 15.83, 15.97, 16.04, 16.05, 16.08, 16.53, 16.98, 16.97, 16.04, 14.07, 6.64, 6.71, 6.4, 6.79, 7.15, 7.21, 5.95, 4.74, 7.6, 7.63, 9.39, -0.0, -6.32, -6.01, -6.01, -0.0, -0.0, -0.0, -0.0, -0.0, -0.0, -0.0, 8.94, 9.39, 9.39, 10.28, 10.28, -0.0, -0.0, -0.0, 8.05, 1.32, 0.0, -1.58, 0.0, 8.33, 8.49, 10.84, 11.8, 10.09, 11.62, 1.71, 4.65, 8.61, 9.5, 10.4, 10.58, 9.83, 8.94, 7.63, 7.81, 6.7, 7.07, 4.71, 5.1, 6.52, 7.44, 6.7, 5.93, 6.55, 7.82, 6.07, 5.21, 5.21, 9.8, 9.8, 10.12, 9.5, 9.21, 9.8, 10.12, 10.12, 10.92, 10.87, 11.26, 11.6, 11.17, 11.17, 11.17, 11.6, 12.22, 12.87, 14.03, 14.97, 15.27, 15.35, 14.92, 14.87, 15.63, 16.08, 16.49, 16.44, 16.44, 17.33, 17.33, 17.77, 17.67, 15.73, 11.72, 6.9, 4.02, 4.43, 4.74, 5.06, 4.56, 3.6, 1.95, 2.69, 0.0, -9.39, -8.94, -8.94, -8.0, -4.2, -0.0, -0.0, -0.0, -0.0, -0.0, -0.0, 6.64, 6.64, 6.95, 9.83, 9.83, -0.0, -0.0, -2.69, -3.8, -2.26, -1.98, -1.49, 0.0, 7.9, 11.03, 10.73, 11.03, 11.87, 6.94, -0.0, 6.43, 9.64, 11.04, 10.6, 10.0, 9.63, 8.87, 8.63, 5.63, 2.06, 4.6, 6.01, 5.31, 6.32, 7.13, 7.07, 5.37, 6.32, 6.73, 5.84, 5.15, 5.15, 10.3, 9.8, 9.8, 10.12, 9.8, 9.8, 10.12, 10.12, 10.92, 11.33, 11.26, 11.6, 11.94, 11.94, 10.75, 12.63, 10.84, 12.3, 13.58, 14.42, 15.13, 15.27, 14.3, 15.27, 14.42, 16.05, 13.37, 16.12, 16.62, 15.5, 16.83, 17.31, 17.31, 16.83, 14.7, 10.91, 6.95, 5.34, 5.46, 3.8, 1.96, 1.25, 0.0, -3.6, -8.49, -8.94, -8.94, -8.4, -8.4, -6.64, -4.2, -4.2, -0.0, -0.0, -0.0, 4.2, 8.4, 9.39, 9.83, 9.83, 9.83, 9.39, -0.0, -4.56, -4.46, -3.91, -5.06, 1.73, 3.52, 6.87, 10.46, 12.07, 13.72, 13.94, 12.33, 12.71, 12.52, 12.52, 12.35, 11.76, 9.79, 9.83, 9.83, 9.04, 6.14, 3.3, 4.6, 5.86, 6.7, 5.78, 5.82, 6.79, 6.01, 5.49, 6.01, 5.37, 5.37, 5.37, 10.3, 10.3, 9.8, 9.8, 9.8, 9.8, 10.12, 10.12, 10.92, 11.33, 11.26, 11.6, 12.3, 11.94, 11.5, 11.17, 10.43, 9.92, 11.06, 12.65, 15.19, 14.26, 13.28, 13.39, 11.7, 13.01, 13.34, 13.39, 14.67, 15.07, 15.83, 16.06, 16.27, 16.27, 15.68, 13.32, 10.12, 8.22, 7.27, 5.69, 4.42, 1.2, -1.95, -6.51, -5.36, -8.05, -7.6, -8.0, -8.4, -6.64, -6.64, -2.83, -2.83, -0.0, -0.0, 3.8, 8.18, 8.49, 8.94, 8.8, 9.39, 8.94, -6.01, -6.01, -4.56, -4.29, -3.97, 5.06, 8.05, 8.94, 9.85, 11.5, 15.83, 18.21, 15.17, 13.28, 8.73, 8.32, 11.45, 11.02, 10.24, 9.79, 8.89, 9.03, 6.98, 3.8, 3.35, 4.21, 6.71, 4.83, 4.0, 5.64, 6.14, 4.96, 4.0, 4.96, 4.83, 4.83, 10.3, 10.3, 10.3, 9.8, 9.8, 9.8, 10.3, 10.12, 10.92, 11.68, 11.69, 11.6, 12.3, 12.3, 11.88, 11.5, 10.43, 9.92, 7.78, 9.73, 12.45, 12.33, 12.33, 11.38, 11.66, 12.01, 12.26, 13.2, 13.8, 14.88, 15.33, 15.47, 15.72, 15.96, 15.44, 14.79, 12.05, 10.12, 9.14, 8.76, 7.73, 8.15, 8.8, 8.94, 7.15, -8.05, -7.6, -8.0, -8.0, -8.0, -6.01, -6.01, -4.46, -2.69, -0.0, 4.46, 6.79, 7.6, 9.83, 0.0, 8.94, -7.6, -7.07, -7.07, -6.32, -5.95, -5.06, -0.0, 4.83, 5.2, 6.67, 10.25, 14.22, 16.19, 15.65, 12.6, 6.48, 7.44, 8.42, 9.16, 9.66, 9.68, 9.34, 8.49, 8.94, 0.0, 0.0, 3.8, 7.28, 6.01, 4.74, 6.24, 6.57, 4.37, 2.9, 3.51, 3.91, 3.91, 10.3, 10.3, 10.3, 10.3, 9.8, 9.8, 10.3, 10.63, 10.92, 11.68, 12.05, 11.6, 11.95, 12.3, 12.3, 11.94, 11.2, 10.43, 9.6, 10.94, 12.01, 12.02, 11.38, 11.03, 12.35, 13.96, 14.19, 13.46, 13.67, 14.04, 14.89, 15.33, 15.59, 15.85, 15.44, 15.19, 13.54, 11.42, 10.09, 9.58, 9.2, 8.55, 8.82, 8.46, 7.11, 5.81, -0.0, -6.01, -7.6, -7.63, -6.8, -5.69, -5.69, -2.54, -0.0, 2.54, 3.6, -0.0, 9.39, -8.94, -7.63, -6.79, -6.79, -7.07, -6.7, -5.37, -4.22, -2.4, -0.0, -0.0, 1.69, 7.51, 12.51, 15.18, 6.32, 5.46, 6.42, 6.89, 6.2, 6.29, 7.68, 8.58, 9.16, 9.39, 7.81, -0.0, -8.94, 0.0, 6.32, 8.21, 8.31, 7.08, 6.79, 4.94, 2.33, 2.09, 3.17, 3.17, 10.3, 10.3, 10.3, 10.3, 10.3, 10.3, 10.63, 10.63, 10.92, 11.68, 12.05, 12.05, 12.3, 12.3, 12.3, 11.94, 11.2, 10.43, 11.14, 12.4, 12.99, 12.63, 11.73, 11.09, 12.4, 14.28, 15.2, 15.31, 15.19, 14.39, 14.92, 14.92, 15.17, 15.17, 15.4, 15.4, 14.68, 12.72, 10.79, 9.78, 9.47, 9.55, 9.33, 8.77, 7.97, 5.78, 8.05, 8.05, -7.6, -6.4, -7.21, -5.37, -5.37, -2.4, -0.0, -0.0, -0.0, -1.95, -8.94, -7.6, -5.69, -6.01, -4.71, -4.71, -3.6, -1.49, -1.63, -0.0, -0.0, -4.96, -6.95, 7.27, 13.62, 8.41, 2.6, 0.0, 3.0, 5.36, 5.67, 5.28, 4.6, 5.89, 7.76, 9.29, 9.39, 9.39, -2.97, 0.0, 5.7, 8.69, 9.62, 7.9, 7.27, 7.2, 3.8, 3.91, 4.22, 4.22, 10.3, 10.3, 10.3, 10.3, 10.3, 10.3, 10.3, 10.63, 10.92, 11.68, 12.05, 12.4, 12.73, 12.3, 12.3, 12.4, 11.94, 10.84, 11.82, 12.42, 13.65, 14.02, 13.39, 12.05, 12.42, 13.65, 15.14, 15.59, 15.99, 15.58, 14.99, 15.07, 15.07, 15.27, 15.27, 15.27, 15.12, 14.01, 11.69, 10.26, 8.93, 8.91, 9.55, 9.81, 8.64, 7.4, 8.38, 8.49, -7.6, -7.6, -7.2, -6.32, -5.37, -4.22, -2.26, -1.73, -1.63, -2.26, -8.49, 8.05, -0.0, -6.4, -6.4, -3.2, -2.49, -0.96, -0.0, 2.17, -0.0, -6.01, -6.7, 10.05, 12.87, 11.62, 11.62, 0.0, 0.0, 3.44, 4.52, 4.81, 4.21, 4.07, 4.94, 6.52, 6.32, 0.0, 0.0, 1.54, 5.86, 8.4, 7.06, 6.63, 8.24, 6.32, 7.21, 6.08, 5.69, 5.69, 10.73, 10.73, 10.73, 10.3, 10.3, 10.3, 10.3, 11.07, 10.92, 11.68, 11.68, 12.05, 12.73, 12.73, 12.73, 12.4, 11.94, 11.17, 11.87, 12.78, 13.05, 14.36, 14.13, 14.11, 13.35, 13.54, 14.57, 15.31, 15.73, 15.58, 15.82, 15.49, 14.65, 14.9, 15.33, 15.33, 15.27, 14.62, 13.07, 10.8, 8.68, 8.4, 8.91, 9.55, 9.33, 8.91, 7.51, 5.43, 0.0, -6.26, -5.2, -6.32, -5.06, -3.97, -4.22, -3.97, -2.26, -3.47, -5.37, 8.05, 8.05, 6.71, -6.71, -2.32, -0.96, -0.0, -0.0, -0.0, -0.0, -2.54, 2.69, 7.87, 12.35, 12.94, 13.65, 13.88, 13.28, 7.9, 3.32, 3.82, 4.24, 4.81, 5.35, 6.17, 3.6, 0.0, -4.71, -6.32, -8.94, -8.0, -6.32, 8.06, 8.05, 7.6, 7.15, 6.79, 6.13, 6.13, 11.21, 11.21, 10.73, 10.73, 10.73, 10.3, 10.3, 11.07, 10.92, 11.33, 11.68, 12.05, 12.73, 12.73, 12.73, 12.73, 11.94, 12.3, 12.22, 12.43, 12.68, 13.39, 14.13, 14.49, 14.31, 13.93, 14.1, 15.05, 15.59, 15.73, 15.58, 15.91, 15.49, 15.56, 15.14, 15.38, 15.33, 15.27, 14.38, 11.99, 10.11, 8.68, 8.51, 9.13, 9.55, 9.75, 9.33, 7.43, 5.58, 4.43, -4.11, -3.79, -4.74, -4.29, -4.56, -5.37, -3.97, -3.97, -5.06, 8.05, 7.6, 8.94, 5.37, -0.0, -0.0, -0.0, -0.0, -0.0, -6.01, -3.6, 1.32, 6.95, 9.54, 13.41, 14.44, 14.3, 14.27, 13.38, 5.69, 2.17, 3.41, 5.14, 6.0, 5.95, 2.99, 2.54, -0.0, -1.67, -4.6, -5.31, -5.36, 8.49, 7.07, 7.06, 6.79, 7.01, 7.06, 7.06, 11.21, 11.21, 10.73, 10.73, 10.73, 10.73, 10.3, 10.3, 11.07, 11.33, 11.68, 12.05, 12.4, 12.37, 12.73, 12.73, 12.3, 12.3, 12.22, 12.52, 12.78, 13.02, 13.15, 13.76, 14.31, 14.49, 14.26, 14.65, 15.19, 15.19, 15.32, 15.32, 15.44, 15.55, 15.44, 15.44, 15.63, 15.63, 15.49, 14.48, 12.64, 10.91, 9.71, 8.91, 9.55, 9.75, 9.75, 8.91, 7.43, 6.13, 5.64, -0.0, -3.07, -3.83, -4.74, -4.29, -4.22, -5.06, -3.72, -3.0, 8.49, 8.05, 6.64, 2.66, 1.75, -0.0, -0.0, -0.0, -6.01, 0.0, 3.15, 5.59, 8.34, 10.25, 10.93, 12.29, 15.1, 13.21, 8.6, 0.94, 1.92, 4.81, 5.99, 4.8, 3.17, 3.2, -0.0, -0.0, -0.0, -1.4, -0.0, 2.69, 4.46, 5.1, 5.37, 7.06, 7.06, 7.06, 11.21, 11.21, 10.73, 10.73, 10.73, 10.73, 10.73, 10.73, 11.07, 10.99, 11.33, 12.05, 12.05, 12.37, 12.37, 12.37, 12.73, 12.3, 12.62, 12.52, 12.78, 12.78, 12.78, 13.14, 13.73, 14.1, 14.26, 14.26, 14.93, 14.93, 15.06, 14.79, 15.44, 15.44, 15.55, 15.44, 15.44, 16.05, 15.98, 14.99, 13.65, 11.82, 9.88, 9.01, 9.81, 9.54, 10.13, 9.54, 8.48, 7.51, 5.6, 5.26, -0.0, -3.15, -3.79, -5.01, -5.06, -5.06, -4.74, -5.36, -5.06, -0.0, 3.6, 3.91, 4.0, 3.25, 2.17, 8.94, -6.32, 0.0, 4.96, 6.64, 7.21, 7.81, 9.46, 10.25, 12.52, 11.6, 8.94, 2.4, 1.0, 4.04, 6.51, 4.81, 1.33, -8.4, -3.4, -0.0, -0.0, -0.0, -0.0, 6.01, 8.05, 3.6, 4.83, 5.69, 6.52, 6.52, 11.21, 11.21, 11.21, 10.73, 10.73, 10.73, 10.73, 11.07, 11.07, 11.07, 11.33, 12.05, 12.4, 12.4, 12.73, 12.37, 12.37, 12.26, 12.26, 12.52, 13.14, 13.14, 13.14, 13.14, 13.35, 13.54, 13.71, 14.26, 14.93, 14.93, 15.2, 14.93, 15.06, 15.04, 15.14, 15.36, 15.44, 15.85, 16.05, 15.49, 14.57, 12.11, 10.16, 8.63, 8.17, 9.31, 10.66, 11.37, 11.08, 8.79, 7.71, 5.08, 4.66, -1.55, -3.48, -3.43, -5.58, -5.06, -5.01, -5.75, -6.13, -4.46, 2.4, 4.71, 4.2, 1.54, 1.54, -0.0, -7.6, -6.32, 8.0, 9.26, 8.79, 7.13, 6.31, 9.9, 10.53, 10.25, 9.32, 7.15, 2.12, 4.02, 6.32, 6.79, 3.7, 0.0, -3.47, -5.37, -0.0, 7.6, 8.05, 7.6, 7.45, 7.37, 6.08, 5.69, 6.28, 6.28, 11.21, 11.21, 11.21, 10.73, 10.73, 10.73, 10.73, 11.07, 11.07, 11.07, 11.44, 12.05, 12.05, 12.4, 13.1, 12.73, 12.37, 12.26, 12.26, 12.52, 12.89, 12.89, 12.89, 13.14, 13.14, 13.35, 13.32, 13.86, 14.26, 14.53, 14.79, 14.79, 14.89, 14.76, 15.27, 15.14, 15.36, 15.44, 15.77, 15.77, 15.07, 13.02, 11.08, 8.18, 6.79, 8.06, 11.8, 12.72, 12.33, 11.2, 9.63, 6.87, 4.09, 4.92, -3.48, -4.22, -4.0, -4.65, -5.37, -5.6, -5.75, -5.37, 7.6, 8.49, -0.0, -1.4, -0.0, 2.39, 7.6, 0.0, 3.6, 7.94, 8.94, 10.6, 10.01, 10.12, 10.52, 9.3, 10.38, 10.18, 7.87, 3.69, 6.07, 7.58, 7.38, 6.01, 8.49, -8.05, -6.36, -6.4, -6.8, 8.05, 8.49, 8.05, 8.38, 7.6, 7.07, 7.07, 10.85, 10.85, 11.21, 10.73, 10.73, 10.73, 10.73, 11.07, 11.07, 11.42, 11.8, 11.44, 12.05, 12.05, 12.73, 12.73, 12.73, 13.02, 12.62, 12.89, 12.89, 12.89, 12.89, 12.89, 13.14, 13.35, 13.15, 12.93, 13.86, 14.38, 14.79, 14.38, 14.48, 14.48, 14.76, 14.63, 15.14, 15.14, 15.36, 15.77, 15.27, 13.94, 11.36, 8.55, 6.28, 7.41, 11.04, 12.67, 12.42, 11.34, 9.3, 6.92, 4.45, 3.93, 4.92, -3.48, -4.29, -4.37, -5.47, -5.51, -6.58, -7.6, -6.01, -8.49, -2.69, -2.99, -2.82, -0.0, 8.05, 6.94, 5.21, 6.4, 8.94, 11.08, 13.39, 13.59, 11.2, 8.93, 9.16, 11.03, 10.0, 5.95, 4.68, 7.63, 8.59, 9.0, 10.8, 9.2, 0.0, -6.0, -7.6, 7.6, 7.6, 7.5, 8.94, 8.85, 8.6, 8.6, 10.85, 10.85, 10.85, 11.53, 11.09, 11.09, 10.73, 11.07, 11.07, 11.42, 11.8, 11.8, 11.33, 12.4, 12.73, 12.73, 12.73, 13.39, 12.98, 12.98, 13.26, 13.26, 12.89, 12.89, 13.14, 13.35, 13.15, 12.21, 14.39, 13.33, 13.99, 14.53, 14.65, 14.24, 14.24, 14.52, 14.63, 15.14, 15.14, 15.27, 15.27, 14.44, 12.28, 9.21, 7.51, 8.49, 10.51, 12.65, 11.88, 10.41, 7.81, 5.69, 3.83, 3.15, 3.48, 4.47, -0.0, -4.29, -4.66, -5.51, -6.26, -7.6, -8.49, -8.05, -2.06, -2.99, -4.56, -5.69, 8.05, 8.49, 7.6, 8.49, 0.0, 11.18, 16.07, 16.02, 12.18, 7.72, 6.95, 10.35, 10.53, 10.48, 7.24, 8.82, 10.62, 11.58, 12.93, 13.25, 11.02, 8.94, 8.05, -0.0, 7.6, 7.15, 8.41, 8.94, 8.49, 8.49, 10.85, 10.85, 10.85, 11.53, 11.53, 11.09, 10.73, 11.07, 11.07, 11.42, 11.8, 11.8, 11.8, 11.69, 12.4, 12.73, 12.73, 12.73, 13.02, 13.39, 13.26, 13.26, 13.26, 12.89, 12.52, 12.76, 12.97, 12.21, 11.94, 13.58, 12.77, 13.86, 14.26, 14.39, 14.65, 14.65, 14.52, 15.04, 15.04, 15.04, 15.04, 14.63, 12.79, 9.86, 8.15, 9.37, 11.06, 12.14, 12.51, 10.16, 7.35, 4.71, 3.11, 3.22, 3.79, 4.0, 4.47, -0.0, -3.79, -4.22, -5.09, -7.15, -8.49, -0.0, -1.58, -3.6, -4.75, -6.08, -8.49, 8.94, 4.96, -0.0, 0.0, 8.55, 13.96, 17.81, 12.58, 3.98, 5.29, 10.16, 11.61, 12.91, 13.41, 13.41, 13.37, 14.16, 14.47, 14.18, 12.07, 8.94, 8.49, 8.94, 8.49, 7.15, 6.71, 8.49, 8.05, 8.05, 10.85, 10.85, 11.16, 11.16, 11.53, 11.09, 11.09, 11.07, 11.07, 11.42, 11.8, 12.16, 11.8, 11.69, 12.05, 12.73, 12.73, 12.73, 13.02, 13.39, 13.39, 13.76, 13.39, 13.65, 12.52, 12.76, 12.97, 12.59, 12.77, 12.47, 12.47, 13.03, 13.42, 13.86, 14.39, 14.65, 14.65, 14.52, 15.04, 14.92, 14.92, 15.04, 13.71, 10.96, 9.08, 9.37, 10.51, 12.39, 12.74, 10.91, 8.54, 7.51, 4.71, 3.68, 3.76, 5.2, 5.7, 4.92, 4.0, -0.0, -5.06, -5.37, -3.4, -2.54, -3.2, -4.56, -4.75, -5.06, -7.07, -4.0, -0.0, 3.11, 9.83, 8.23, 12.64, 17.0, 14.75, 13.23, 12.27, 12.96, 13.81, 14.3, 14.3, 13.82, 13.82, 13.84, 14.23, 14.29, 12.07, 8.94, 7.08, 9.39, 8.94, 7.37, 6.79, 8.05, 8.05, 8.05, 11.16, 11.16, 11.16, 11.16, 11.53, 11.53, 11.09, 11.44, 11.8, 11.8, 12.16, 12.16, 12.16, 12.13, 12.13, 12.37, 12.37, 12.37, 12.65, 13.02, 13.39, 13.39, 13.39, 13.39, 12.89, 12.76, 12.97, 12.59, 12.77, 12.85, 12.85, 13.15, 13.32, 13.32, 13.86, 14.24, 14.65, 14.65, 14.92, 14.92, 14.92, 14.63, 13.71, 11.75, 9.95, 9.37, 10.51, 11.99, 12.11, 11.82, 9.71, 8.88, 7.06, 6.52, 6.28, 6.64, 6.17, 6.26, 5.36, 4.34, -0.0, -0.0, -3.4, -2.4, -2.54, -3.6, -3.97, -4.56, -5.69, -4.71, -1.95, 3.11, 10.08, 11.06, 13.23, 13.65, 14.66, 14.05, 14.33, 14.65, 14.28, 14.03, 12.89, 12.39, 12.81, 13.78, 14.68, 12.96, 10.73, 8.49, 7.52, 7.45, 9.39, 6.7, 6.13, 7.21, 8.44, 8.44, 11.16, 11.16, 11.16, 11.16, 11.53, 11.53, 11.9, 11.44, 11.8, 11.8, 12.16, 12.16, 12.16, 12.13, 12.13, 12.05, 12.37, 12.37, 12.37, 13.02, 13.02, 13.39, 13.39, 13.39, 13.27, 12.52, 12.76, 12.59, 12.77, 13.15, 13.15, 13.15, 12.77, 13.19, 13.32, 13.72, 14.24, 14.24, 14.65, 14.52, 14.52, 14.52, 14.11, 11.99, 10.4, 9.67, 10.4, 11.47, 12.11, 11.82, 10.4, 8.96, 8.38, 7.69, 7.2, 6.99, 7.08, 6.71, 5.81, 4.47, 4.09, -0.0, -3.6, -3.97, -3.4, -0.0, -3.4, -2.06, -3.8, -3.8, -2.83, -0.0, 8.58, 11.33, 12.52, 12.48, 12.93, 13.44, 16.36, 17.87, 16.48, 12.92, 10.73, 10.0, 10.75, 11.09, 11.11, 9.39, 7.15, 8.05, 7.54, 7.5, 8.49, 8.06, 6.32, 6.8, 8.17, 8.17, 10.79, 10.79, 11.16, 11.16, 11.53, 11.53, 11.9, 11.9, 11.8, 11.8, 12.16, 12.16, 12.16, 12.5, 12.13, 12.13, 12.37, 12.37, 12.37, 13.02, 13.02, 13.02, 13.39, 13.39, 13.27, 12.52, 12.76, 12.59, 12.59, 13.15, 13.15, 13.15, 13.05, 13.05, 13.19, 13.32, 13.32, 13.72, 14.24, 14.65, 14.52, 14.52, 13.59, 11.75, 9.07, 9.2, 10.27, 11.31, 11.92, 11.82, 10.91, 9.88, 8.55, 8.38, 7.85, 7.35, 7.42, 7.15, 5.81, 4.92, 4.82, 2.73, -0.0, -2.26, -0.0, -0.0, -0.0, -0.0, -0.0, -0.0, -0.0, -0.0, 4.6, 11.87, 13.84, 12.41, 11.21, 12.24, 15.78, 18.44, 17.2, 12.33, 10.7, 9.2, 9.13, 9.7, 9.83, 7.15, 8.05, 7.54, 7.54, 7.08, 7.06, 9.39, 8.48, 6.4, 6.13, 7.63, 10.79, 10.79, 11.16, 11.16, 11.53, 11.53, 11.9, 11.9, 11.8, 11.8, 12.16, 12.16, 12.16, 12.5, 12.5, 12.13, 12.13, 12.37, 12.37, 13.02, 13.02, 13.02, 13.02, 13.39, 13.02, 12.89, 12.39, 12.39, 12.59, 12.77, 13.15, 12.77, 12.77, 13.05, 13.05, 13.19, 12.92, 13.72, 13.72, 14.13, 14.24, 14.52, 13.07, 10.63, 9.04, 9.72, 10.27, 11.08, 12.11, 11.6, 11.08, 10.02, 9.1, 8.0, 7.44, 7.46, 7.06, 7.56, 6.26, 4.92, 4.92, 4.4, -0.0, -0.0, -0.0, -0.0, -0.0, -0.0, -0.0, -0.0, -0.0, -3.8, 6.64, 11.12, 15.57, 14.3, 11.13, 10.56, 13.85, 16.74, 15.53, 11.89, 11.05, 10.2, 9.21, 9.39, 9.39, 9.39, 10.65, 10.2, 8.43, 7.1, 6.65, 9.39, 9.21, 7.2, 5.75, 6.13, 10.79, 10.79, 10.79, 11.16, 11.53, 11.53, 11.9, 11.9, 12.27, 11.8, 12.16, 12.16, 12.16, 12.5, 12.5, 12.13, 12.13, 12.41, 12.37, 12.37, 13.02, 13.02, 13.02, 13.02, 13.02, 12.89, 12.51, 12.39, 12.21, 12.38, 12.77, 12.77, 12.77, 12.77, 12.66, 13.19, 12.79, 12.92, 13.72, 13.97, 14.13, 14.24, 13.07, 10.4, 9.42, 11.16, 12.26, 12.27, 12.42, 11.88, 11.22, 10.3, 8.84, 8.0, 7.44, 7.17, 7.14, 7.15, 6.26, 5.36, 4.92, 4.82, 3.79, -0.0, -0.0, -0.0, -0.0, -1.84, -0.0, -0.0, -0.0, -5.69, 6.64, 10.14, 12.91, 14.42, 13.01, 11.05, 10.8, 12.13, 11.3, 9.89, 10.16, 9.83, 9.83, 10.14, 10.62, 11.51, 11.53, 11.55, 10.22, 7.98, 7.6, 9.39, 8.94, 7.47, 5.37, 5.75, 10.79, 10.79, 10.79, 11.16, 11.16, 11.53, 11.53, 11.9, 11.9, 12.27, 12.27, 12.27, 12.16, 12.5, 12.13, 12.13, 12.13, 12.41, 12.0, 12.37, 12.65, 12.65, 12.65, 13.02, 13.02, 13.02, 12.51, 12.01, 12.21, 12.21, 12.38, 12.77, 12.77, 12.77, 12.38, 12.66, 12.79, 12.39, 12.79, 13.45, 13.56, 14.07, 12.92, 10.79, 9.08, 10.66, 12.74, 13.02, 11.8, 11.72, 11.62, 10.41, 8.29, 7.87, 7.17, 7.46, 7.14, 7.12, 6.71, 5.81, 4.92, 4.92, 5.06, 3.2, -0.0, -0.0, -0.0, -0.0, -0.0, -0.0, -0.0, 8.05, 0.0, 7.44, 10.28, 12.08, 15.1, 15.34, 11.18, 8.37, 6.7, 8.0, 10.18, 11.18, 11.53, 11.53, 11.53, 11.53, 11.57, 11.57, 10.73, 9.39, 8.05, 9.83, 9.32, 7.94, 6.23, 6.23, 10.41, 10.41, 10.79, 10.79, 11.16, 11.16, 11.53, 11.9, 11.9, 11.9, 12.27, 12.27, 12.27, 12.13, 12.13, 12.13, 12.13, 12.41, 12.41, 12.0, 12.37, 12.65, 12.65, 12.65, 12.65, 12.65, 12.51, 11.79, 12.01, 11.82, 11.99, 11.99, 12.38, 12.21, 12.38, 12.26, 12.39, 11.99, 12.39, 13.04, 13.04, 13.15, 12.64, 10.94, 9.66, 10.87, 12.37, 12.45, 11.52, 11.16, 11.07, 9.86, 8.0, 7.59, 7.54, 7.46, 7.92, 7.57, 7.13, 6.26, 5.36, 4.92, 4.92, 5.37, -0.0, -0.0, -0.0, -0.0, -0.0, -0.0, -0.0, 8.49, 0.0, 3.8, 6.64, 9.75, 12.52, 16.02, 14.57, 11.88, 11.02, 11.46, 11.95, 12.45, 12.52, 12.07, 11.18, 11.18, 11.18, 11.18, 11.18, 9.83, 9.39, 9.79, 8.29, 8.06, 8.06, 8.06, 10.41, 10.41, 10.79, 10.79, 11.16, 11.16, 11.53, 11.53, 11.53, 11.9, 11.9, 12.27, 12.27, 11.8, 12.13, 12.13, 12.13, 12.41, 12.41, 12.0, 12.37, 12.37, 12.65, 12.65, 12.65, 12.65, 12.27, 12.13, 11.63, 11.82, 11.44, 11.61, 11.61, 11.82, 12.21, 11.61, 11.87, 11.99, 11.99, 12.23, 12.64, 12.74, 12.23, 10.8, 10.02, 11.33, 12.79, 12.53, 11.61, 10.68, 10.3, 9.1, 7.72, 8.11, 7.72, 8.0, 7.81, 7.5, 7.58, 6.68, 5.78, 5.32, 4.92, 7.6, 3.4, 3.4, -0.0, -0.0, -0.0, -0.0, -0.0, 8.49, 0.0, 4.2, 5.86, 6.64, 9.9, 13.84, 15.57, 14.42, 12.86, 12.33, 13.6, 13.53, 12.96, 12.01, 10.75, 10.32, 10.41, 11.0, 11.0, 9.7, 9.26, 9.06, 8.63, 8.48, 8.48, 8.48, 10.41, 10.41, 10.79, 10.79, 11.16, 11.16, 11.53, 11.53, 11.9, 11.9, 11.9, 12.27, 12.27, 12.27, 12.13, 12.13, 12.13, 12.41, 12.41, 12.41, 12.37, 12.37, 12.37, 12.65, 12.65, 12.65, 12.27, 12.13, 11.63, 11.26, 11.44, 11.44, 11.44, 11.44, 11.44, 11.44, 11.22, 11.87, 11.99, 11.99, 12.23, 12.23, 11.41, 10.62, 10.0, 10.92, 12.36, 12.45, 12.23, 10.91, 9.88, 8.43, 7.44, 7.44, 7.34, 7.84, 7.63, 7.84, 7.51, 7.07, 6.6, 5.24, 5.31, 5.36, 7.2, 3.6, 3.6, 2.26, -0.0, -1.84, -2.83, -0.0, 0.0, 6.64, 6.95, 6.64, 9.2, 11.59, 13.32, 13.35, 13.46, 15.91, 18.54, 17.59, 13.7, 12.52, 11.51, 9.3, 9.32, 9.8, 11.13, 8.63, 9.49, 9.24, 8.82, 7.95, 7.95, 7.95, 10.41, 10.41, 10.79, 10.79, 10.79, 11.16, 11.16, 11.53, 11.9, 11.9, 11.9, 11.9, 12.27, 12.27, 12.56, 12.13, 12.13, 12.41, 12.41, 12.41, 12.41, 12.37, 12.37, 12.37, 12.37, 12.65, 12.27, 12.13, 11.42, 11.63, 11.44, 11.06, 11.06, 11.06, 11.06, 11.06, 11.06, 11.22, 11.87, 11.6, 11.6, 11.82, 11.41, 10.21, 10.0, 10.8, 11.85, 11.95, 12.04, 11.12, 10.21, 8.68, 7.61, 7.07, 6.79, 7.06, 7.43, 7.63, 7.26, 7.4, 6.94, 5.7, 5.32, 5.36, 5.7, 7.6, 3.6, 3.2, -0.0, -1.95, -2.54, -0.0, 8.94, 8.4, 8.4, 8.4, 9.75, 11.18, 11.34, 8.85, 10.43, 15.37, 19.25, 17.65, 15.41, 13.88, 12.47, 11.03, 8.94, 9.86, 9.4, 7.47, 8.0, 8.72, 7.76, 6.8, 6.8, 6.8, 10.41, 10.41, 10.79, 10.79, 11.16, 11.16, 11.16, 11.53, 11.53, 11.9, 11.9, 11.9, 12.27, 12.27, 12.56, 12.13, 12.13, 12.41, 12.41, 12.41, 12.41, 12.37, 12.37, 12.37, 12.37, 12.65, 12.27, 11.9, 11.42, 11.63, 11.44, 11.06, 11.06, 10.68, 10.68, 10.68, 10.68, 10.68, 11.47, 11.47, 11.47, 11.6, 11.41, 10.62, 10.0, 11.06, 11.33, 11.44, 11.54, 10.62, 9.92, 9.01, 8.0, 7.23, 7.06, 6.67, 6.92, 6.92, 7.21, 6.79, 6.51, 5.7, 5.24, 5.36, 5.26, 7.6, 5.37, 5.69, -0.0, -0.0, -0.0, -0.0, 8.49, 8.94, 9.39, 9.83, 10.28, 10.0, 6.97, 5.2, 8.37, 13.99, 19.08, 17.85, 15.87, 14.77, 13.23, 11.59, 9.48, 7.27, 6.55, 5.09, 5.2, 5.6, 5.58, -3.0, -3.0, -3.0, 10.41, 10.41, 10.79, 10.79, 10.79, 11.16, 11.53, 11.53, 11.53, 11.53, 11.9, 11.9, 11.9, 12.56, 12.56, 12.13, 12.13, 12.41, 12.41, 12.03, 12.03, 12.41, 12.37, 12.37, 12.37, 12.37, 12.27, 11.9, 11.42, 11.63, 11.26, 11.44, 11.06, 10.68, 10.68, 10.3, 10.3, 10.68, 10.68, 11.08, 11.08, 11.08, 11.31, 10.62, 10.0, 11.06, 11.57, 11.44, 11.25, 10.33, 10.05, 9.63, 8.72, 8.0, 7.06, 6.67, 6.92, 6.72, 6.72, 6.47, 6.14, 5.67, 5.32, 4.92, 4.92, 7.2, 6.8, 3.4, 3.6, 3.6, 4.0, -0.0, -6.32, -6.64, -0.0, -0.0, 5.46, 4.6, 3.77, 5.43, 8.75, 12.15, 15.59, 16.8, 17.29, 16.04, 13.12, 10.28, 7.59, 5.86, 4.19, 3.79, 4.09, 6.26, -6.71, -6.64, -6.64, -6.64, 10.41, 10.41, 10.79, 10.79, 10.79, 11.16, 11.53, 11.53, 11.53, 11.9, 11.9, 11.9, 12.27, 12.56, 12.56, 12.13, 12.13, 12.13, 12.41, 12.41, 12.41, 12.41, 12.79, 12.37, 12.37, 12.0, 12.27, 11.9, 11.42, 11.05, 11.26, 11.44, 11.06, 10.68, 10.68, 10.13, 10.13, 10.3, 10.3, 10.94, 11.08, 11.08, 10.91, 10.4, 10.52, 11.2, 11.73, 11.44, 10.83, 9.92, 9.55, 9.33, 9.26, 8.84, 7.6, 7.2, 6.92, 6.72, 6.47, 6.42, 6.11, 5.77, 5.31, 4.92, 4.92, 6.71, 6.0, 5.06, 4.22, 4.71, 7.44, -0.0, -8.4, -8.4, -6.64, -0.0, -0.0, -0.0, 2.82, 5.95, 8.73, 9.52, 10.55, 14.74, 17.47, 16.96, 8.91, 7.6, 7.5, 5.4, 4.65, 4.11, 4.92, -5.81, -6.07, -6.61, -6.61, -6.61, 10.41, 10.41, 10.79, 10.79, 10.79, 11.16, 11.53, 11.53, 11.53, 11.9, 11.9, 11.9, 12.27, 12.56, 12.56, 12.56, 12.13, 12.13, 12.41, 12.41, 12.41, 12.41, 12.79, 12.37, 12.0, 12.0, 12.0, 11.9, 11.18, 11.42, 11.26, 11.26, 11.06, 10.68, 10.51, 10.13, 10.13, 10.13, 10.3, 10.55, 10.55, 10.55, 10.8, 10.4, 10.92, 11.33, 11.73, 11.44, 10.83, 9.92, 9.75, 9.46, 9.46, 8.34, 7.71, 7.2, 7.43, 7.14, 6.9, 6.16, 5.78, 5.77, 5.36, 5.36, 4.92, 6.26, 6.26, 4.74, 3.97, 5.69, 7.07, 8.0, -0.0, -9.83, -9.39, -6.64, -0.0, -0.0, -0.0, 6.14, 8.55, 8.37, 8.82, 11.75, 17.25, 13.79, 9.39, 5.81, 4.41, 5.36, 6.14, 6.0, 0.0, 0.0, -4.11, -5.81, -5.81, -5.81, 10.41, 10.41, 10.41, 10.79, 10.79, 10.79, 11.16, 11.53, 11.53, 11.9, 11.9, 12.27, 12.27, 12.56, 12.56, 12.56, 12.13, 12.13, 12.41, 12.41, 12.41, 12.41, 12.41, 12.0, 12.0, 12.0, 12.0, 11.9, 11.18, 11.42, 11.26, 11.26, 11.06, 11.06, 10.51, 10.13, 10.13, 9.76, 10.02, 10.02, 10.16, 10.55, 10.4, 10.27, 10.92, 11.33, 11.73, 11.44, 10.92, 10.24, 9.55, 9.26, 9.46, 8.34, 7.71, 7.31, 7.43, 7.21, 7.37, 6.47, 5.7, 5.77, 5.31, 5.36, 5.26, 5.2, 6.71, 6.26, 4.74, 5.06, 5.37, 6.01, 4.2, -0.0, -9.33, -8.91, -6.64, -2.83, -0.0, 6.64, 7.68, 8.18, 8.93, 11.51, 18.33, 15.63, 10.7, 7.89, 2.0, 4.66, 5.81, 7.21, 0.0, -1.55, -3.22, -6.4, -6.4, -6.4, 10.41, 10.41, 10.41, 10.79, 10.79, 10.79, 11.16, 11.53, 11.53, 11.9, 11.9, 12.27, 12.27, 12.56, 12.56, 12.56, 12.13, 12.13, 12.41, 12.41, 12.41, 12.41, 12.41, 12.0, 12.0, 12.0, 11.64, 11.64, 11.53, 11.05, 11.05, 10.88, 10.88, 10.88, 10.51, 10.13, 10.13, 9.76, 10.02, 10.02, 10.02, 10.16, 10.4, 9.88, 10.52, 10.52, 10.92, 10.92, 11.16, 10.24, 9.96, 9.68, 9.46, 8.76, 8.12, 7.71, 7.51, 7.43, 7.21, 6.94, 6.04, 5.67, 5.75, 5.73, 5.73, 5.4, 6.0, 4.43, 0.0, 7.15, 7.6, 8.05, 6.01, 4.0, -8.8, -8.91, -6.64, -2.83, -0.0, 6.64, 7.87, 8.43, 9.45, 17.42, 19.21, 16.48, 12.07, 4.2, -2.6, 0.0, 4.09, 5.95, 0.0, -3.79, -5.37, -7.6, -7.6, -7.6, 10.41, 10.41, 10.41, 10.41, 10.79, 10.79, 11.16, 11.16, 11.53, 11.53, 11.9, 11.9, 12.27, 12.27, 12.56, 12.56, 12.13, 12.13, 12.13, 12.79, 12.41, 12.41, 12.0, 12.0, 12.0, 11.64, 11.64, 11.64, 11.53, 10.81, 11.05, 10.88, 10.88, 10.51, 10.51, 10.13, 9.95, 9.58, 9.48, 9.63, 10.02, 10.02, 9.88, 9.88, 9.71, 10.11, 10.52, 10.52, 10.75, 10.38, 9.86, 9.68, 9.26, 8.93, 8.4, 8.0, 7.71, 7.93, 7.43, 7.21, 6.3, 5.99, 6.07, 6.02, 5.94, 5.94, 4.98, 4.11, 0.0, 7.15, 7.6, 8.49, 8.49, 8.05, -7.6, -8.0, -8.94, 8.94, 9.39, 9.39, 8.91, 9.64, 11.62, 16.99, 18.76, 15.18, 11.18, 0.0, -1.8, 0.0, 2.2, 3.97, -2.4, -5.37, -6.32, -7.15, -7.15, -7.15, 10.12, 10.12, 10.41, 10.41, 10.41, 10.79, 11.16, 11.53, 11.53, 11.53, 11.53, 11.9, 12.27, 12.27, 12.56, 12.56, 12.56, 12.13, 12.13, 12.79, 12.79, 12.41, 12.41, 12.0, 11.64, 11.64, 11.64, 11.28, 11.53, 10.81, 11.05, 10.68, 10.88, 10.51, 10.51, 9.95, 9.95, 9.58, 9.48, 9.48, 9.63, 9.63, 9.63, 9.88, 9.48, 9.71, 9.71, 9.71, 9.83, 9.96, 10.1, 9.68, 9.04, 8.8, 8.8, 8.4, 8.12, 8.12, 7.71, 6.9, 6.6, 6.23, 5.72, 5.86, 6.16, 6.16, 6.0, 4.65, 3.2, 0.0, 5.69, 8.49, 8.94, 8.94, -8.94, -7.6, -3.6, 0.0, 5.21, 7.81, 8.0, 9.39, 10.73, 14.13, 16.69, 13.01, 8.24, -2.98, -1.41, -0.7, 0.0, 0.0, -2.54, -4.96, -6.64, -6.79, -6.79, -6.79, 10.12, 10.12, 10.12, 10.41, 10.41, 10.41, 10.79, 11.16, 11.16, 11.16, 11.53, 11.9, 11.9, 12.27, 12.56, 12.56, 12.56, 12.13, 12.13, 12.79, 12.79, 12.79, 12.79, 12.0, 11.64, 11.64, 11.64, 11.28, 11.28, 10.81, 10.68, 10.68, 10.51, 10.51, 10.51, 9.95, 9.95, 9.58, 9.48, 9.48, 9.48, 9.48, 9.63, 9.35, 9.35, 9.71, 9.71, 9.71, 9.42, 9.55, 9.45, 9.6, 9.05, 8.54, 8.54, 8.4, 8.27, 7.87, 7.48, 7.31, 7.2, 6.51, 5.86, 6.0, 6.0, 6.16, 6.16, 6.0, 4.43, 3.4, 5.37, 8.05, 6.01, 8.94, -8.94, -8.94, -2.83, 0.0, 1.75, 4.0, 4.0, 7.67, 9.32, 11.62, 14.11, 12.71, 6.32, -5.36, -4.77, -3.35, -3.97, -5.1, -6.64, -2.97, -4.2, -4.2, -4.2, -4.2, 10.12, 10.12, 10.12, 10.41, 10.79, 10.79, 10.79, 10.79, 11.16, 11.16, 11.53, 11.9, 11.9, 12.27, 12.27, 12.56, 12.56, 12.13, 12.13, 12.41, 12.79, 12.79, 12.37, 12.0, 11.64, 11.64, 11.64, 11.28, 10.91, 10.81, 10.45, 10.31, 10.31, 10.51, 9.95, 9.95, 9.95, 9.37, 9.67, 9.48, 9.48, 9.1, 9.1, 9.35, 9.35, 9.35, 9.6, 9.2, 9.42, 9.45, 9.34, 9.6, 9.05, 8.54, 8.54, 8.8, 8.27, 7.87, 7.87, 7.48, 6.95, 6.67, 6.13, 6.25, 6.07, 6.4, 6.21, 6.21, 5.75, 3.2, 5.37, 3.4, 3.6, 0.0, -8.49, -6.01, -2.69, 0.0, 1.47, 1.47, 2.69, 5.59, 7.81, 9.97, 12.07, 12.96, 9.83, -3.48, -4.29, -7.6, -7.67, -7.33, -4.2, 0.0, -1.84, -1.84, -1.84, -1.84, 10.12, 10.12, 10.12, 10.12, 10.79, 10.79, 10.79, 11.16, 11.16, 11.16, 11.53, 11.53, 11.9, 12.27, 12.27, 12.56, 12.56, 12.13, 12.13, 12.5, 12.79, 12.79, 12.37, 12.0, 11.64, 11.64, 11.28, 11.28, 10.91, 10.45, 10.45, 10.31, 10.31, 9.95, 9.95, 9.95, 9.58, 9.37, 9.67, 9.3, 9.3, 9.1, 9.1, 9.35, 9.35, 9.35, 9.6, 9.2, 9.32, 9.45, 9.34, 8.8, 8.88, 8.66, 8.8, 8.8, 8.27, 8.27, 7.87, 7.48, 6.95, 6.41, 5.86, 6.13, 5.95, 6.07, 6.07, 6.21, 5.59, 5.06, 3.2, 2.26, 3.2, 0.0, -3.6, -2.69, 0.0, 0.0, 0.0, 0.0, 1.47, 4.2, 6.01, 8.8, 11.66, 13.39, 11.18, 8.05, -4.43, -7.07, -9.39, -6.95, -3.49, 0.0, 0.0, 0.0, 0.0, 0.0, 10.12, 10.12, 10.12, 10.12, 10.48, 10.79, 10.79, 11.16, 11.16, 11.16, 11.53, 11.53, 11.9, 11.9, 12.27, 12.18, 12.18, 12.13, 12.13, 12.13, 12.79, 12.79, 12.37, 12.37, 11.64, 11.28, 11.28, 11.28, 10.91, 10.19, 10.45, 10.09, 10.31, 9.95, 9.95, 9.95, 9.73, 9.37, 9.67, 9.3, 9.3, 8.93, 9.2, 9.2, 9.35, 9.35, 8.96, 9.2, 9.32, 9.2, 9.34, 8.49, 8.49, 8.8, 8.93, 8.52, 8.27, 8.27, 8.27, 7.72, 7.34, 6.79, 6.41, 6.13, 5.95, 5.95, 5.72, 6.44, 6.32, 5.06, 3.76, 4.22, 5.06, 5.06, 0.0, 0.0, -1.67, -2.06, -4.0, 0.0, 0.0, 2.97, 6.01, 8.43, 11.45, 13.67, 12.94, 10.65, 8.49, -6.01, -6.64, -8.8, -5.46, 0.0, 0.0, 0.0, 0.0, 0.0, 10.12, 10.12, 10.12, 10.12, 10.12, 10.79, 10.79, 10.79, 11.16, 11.16, 11.53, 11.53, 11.9, 11.9, 11.9, 12.18, 12.18, 11.76, 12.13, 12.13, 12.41, 12.79, 12.79, 12.0, 11.64, 11.28, 11.28, 10.91, 10.91, 10.19, 10.45, 10.09, 9.95, 9.95, 9.95, 9.95, 9.73, 9.67, 9.67, 9.46, 9.09, 9.3, 9.58, 9.2, 9.2, 9.35, 8.96, 9.07, 9.32, 9.2, 8.66, 8.18, 8.49, 8.8, 8.8, 8.67, 8.4, 8.0, 8.11, 7.72, 7.54, 7.46, 6.9, 6.52, 6.32, 6.32, 6.08, 6.08, 6.55, 5.93, 4.74, 4.22, 4.74, 7.6, 7.15, 0.0, -1.58, -4.71, -4.71, -2.17, 0.0, 2.97, 5.46, 7.76, 11.09, 13.05, 12.94, 11.62, 10.28, 9.83, 9.39, -0.0, 9.83, 6.64, 6.64, 6.32, 6.32, 6.32, 10.12, 10.12, 10.48, 10.48, 10.48, 10.48, 10.79, 11.2, 11.2, 11.16, 11.16, 11.53, 11.9, 11.9, 11.9, 12.18, 12.18, 11.76, 11.76, 12.13, 12.13, 12.41, 12.41, 12.41, 11.64, 11.28, 11.28, 10.91, 10.91, 10.55, 10.45, 10.09, 9.73, 9.95, 9.95, 9.37, 9.37, 9.67, 9.46, 9.09, 9.09, 9.09, 9.4, 9.2, 9.2, 9.2, 9.2, 9.07, 8.93, 9.05, 8.18, 8.18, 8.18, 8.49, 8.4, 8.67, 8.55, 7.85, 7.85, 7.85, 7.85, 7.28, 7.42, 7.03, 6.64, 6.64, 6.32, 6.44, 6.11, 5.37, 4.74, 4.65, 4.8, 7.6, 6.71, 0.0, -3.6, -4.71, -2.69, 0.0, 3.32, 4.0, 5.46, 7.41, 10.15, 12.58, 12.49, 11.62, 11.18, 9.83, 9.39, 9.83, 9.11, 8.94, 8.94, 8.94, 8.94, 8.94, 10.12, 10.12, 10.48, 10.48, 10.48, 10.48, 10.79, 11.2, 11.2, 11.16, 11.16, 11.53, 11.9, 11.9, 11.9, 12.18, 12.18, 11.76, 11.76, 12.13, 12.13, 12.41, 12.41, 12.41, 11.64, 11.28, 11.28, 10.91, 10.91, 10.55, 10.45, 10.09, 9.73, 9.95, 9.95, 9.37, 9.37, 9.67, 9.46, 9.09, 9.09, 9.09, 9.4, 9.2, 9.2, 9.2, 9.2, 9.07, 8.93, 9.05, 8.18, 8.18, 8.18, 8.49, 8.4, 8.67, 8.55, 7.85, 7.85, 7.85, 7.85, 7.28, 7.42, 7.03, 6.64, 6.64, 6.32, 6.44, 6.11, 5.37, 4.74, 4.65, 4.8, 7.6, 6.71, 0.0, -5.1, -4.71, -2.69, 0.0, 3.32, 4.0, 5.72, 7.06, 9.2, 11.23, 12.42, 11.62, 11.59, 11.05, 10.12, 9.32, 9.29, 9.29, 9.39, 9.39, 9.39, 9.39]}, {"header": {"dx": 0.06612293990616946, "dy": 0.0552356325346848, "nx": 98, "ny": 59, "la1": 35.046912555036876, "la2": 31.78801023549047, "lo1": -121.43107172385933, "lo2": -114.95102361305473, "refTime": "2026040908", "parameterCategory": 1, "parameterNumber": 3}, "data": [-10.43, -10.43, -10.43, -9.8, -9.8, -9.8, -9.71, -9.71, -10.43, -10.43, -9.8, -6.97, -5.6, 0.0, 0.0, 0.0, -0.0, -7.59, -10.73, -10.28, -9.39, -8.4, -2.17, 0.0, 0.0, 0.0, -1.03, -1.03, 0.0, 0.0, 2.12, 2.47, 3.11, 3.33, 2.35, 2.2, 0.79, 0.0, 0.0, -2.99, -3.15, -3.65, -2.28, -5.8, -6.4, -7.76, -9.47, -10.31, -9.56, -8.74, -6.3, 9.3, 10.27, 9.32, 9.6, 9.1, 8.41, 7.65, 7.14, 6.45, 6.45, 5.64, 5.92, 7.15, 8.22, 8.22, 7.56, 6.7, 5.57, 4.75, 4.65, 4.64, 3.68, 3.07, 4.05, 4.4, 4.8, 0.0, -3.14, -0.0, 3.25, 3.2, -0.0, -2.6, -2.8, -4.84, -8.05, -8.06, -5.1, -4.0, -4.6, -6.0, -6.2, -6.7, -6.94, -6.31, -5.14, -4.25, -10.12, -10.43, -9.8, -9.8, -10.43, -9.71, -10.01, -10.01, -10.43, -10.43, -9.48, -9.17, -6.45, -4.8, 0.0, 0.0, -10.28, -11.62, -10.28, -9.83, -10.28, -9.97, -6.64, -2.17, -1.32, -1.1, -1.1, -1.32, 0.0, 1.32, 4.02, 3.22, 2.99, 2.6, 1.98, 1.01, 0.0, 0.0, -1.05, -2.83, -5.06, -6.97, -7.19, -9.57, -11.22, -12.2, -12.42, -11.94, -10.19, -7.2, 4.32, 10.0, 9.3, 9.6, 9.8, 9.48, 8.41, 7.65, 7.14, 7.14, 5.98, 6.45, 6.71, 7.56, 8.22, 7.56, 6.97, 6.7, 5.78, 5.06, 4.75, 5.25, 4.32, 3.92, 4.23, 3.99, 3.76, 0.0, -3.14, -0.0, 3.25, 3.2, -0.0, -2.6, -2.8, -4.84, -8.05, -8.06, -5.1, -4.0, -4.6, -6.0, -6.2, -6.7, -6.94, -6.31, -5.14, -4.25, -10.12, -9.8, -10.43, -10.43, -9.71, -9.71, -10.01, -10.75, -10.75, -10.12, -9.62, -8.03, -8.22, -6.45, -7.59, -7.59, -7.9, -11.18, -11.18, -11.18, -9.83, -10.73, -10.96, -9.2, -6.32, -2.26, -1.1, 0.0, 0.0, 2.26, 1.84, 1.73, 0.0, 0.0, 0.0, 0.0, 0.0, -0.99, -2.04, -3.61, -6.97, -9.8, -11.38, -13.1, -13.91, -14.22, -13.17, -11.17, -6.0, 1.76, 7.27, 6.58, 8.24, 9.32, 9.1, 8.94, 7.9, 7.65, 7.14, 6.45, 5.98, 6.45, 6.71, 7.65, 8.22, 7.65, 7.41, 6.92, 6.48, 6.7, 6.21, 5.8, 4.49, 3.21, 1.52, 1.28, 1.56, 2.2, -13.86, -0.0, -0.0, 0.0, -2.4, -3.45, -2.6, -4.29, -6.7, -8.49, -7.67, -5.46, -6.94, -7.38, -8.01, -7.73, -7.64, -6.15, -3.81, -2.97, -10.12, -10.12, -10.43, -10.43, -9.71, -9.71, -10.01, -10.75, -10.43, -9.8, -9.82, -8.73, -10.35, -8.94, -9.3, -7.9, -8.22, -10.8, -12.07, -11.18, -11.18, -10.28, -11.18, -11.51, -10.32, -6.95, -2.66, -1.18, 0.0, 0.0, 0.0, -6.32, -8.67, -8.48, -4.96, -4.2, -3.65, -3.07, -5.64, -7.69, -10.83, -13.8, -14.09, -13.47, -11.16, -8.88, -4.81, 0.0, 2.82, 4.4, 4.2, 6.3, 7.9, 8.37, 9.1, 8.58, 7.9, 7.65, 7.14, 6.45, 5.98, 6.45, 6.97, 8.22, 8.22, 7.72, 7.72, 7.36, 7.44, 7.73, 7.13, 5.91, 4.66, 2.81, 0.0, -1.39, -1.76, 0.0, 0.0, -3.25, -2.06, -2.8, -3.2, -1.98, -2.21, -1.75, -6.32, -8.49, -7.76, -8.42, -8.72, -8.3, -8.12, -6.98, -4.66, -3.11, -1.33, -1.94, -10.12, -10.12, -10.43, -10.43, -9.71, -9.71, -10.01, -10.75, -11.2, -9.8, -9.82, -9.32, -9.97, -8.94, -8.58, -9.3, -10.4, -10.04, -12.07, -11.84, -12.14, -10.73, -10.73, -11.62, -10.73, -10.96, -8.18, -4.2, -2.28, -1.67, -4.0, -8.8, -11.62, -11.62, -11.06, -10.0, -9.3, -9.17, -11.06, -13.51, -14.17, -11.73, -9.33, -3.68, 0.0, 2.62, 3.34, 3.21, 2.82, 2.02, 3.61, 6.58, 7.9, 8.37, 8.73, 8.49, 7.27, 7.56, 7.14, 5.98, 5.2, 6.97, 7.9, 8.41, 8.35, 7.72, 7.26, 7.72, 7.78, 7.73, 7.13, 5.67, 4.85, 3.92, 1.04, -2.46, -4.98, -3.42, 0.0, -6.2, -2.12, -2.4, -2.49, -1.96, -2.09, -5.1, -8.94, -8.0, -9.08, -10.12, -9.02, -7.1, -6.59, -4.0, 0.0, 0.0, -1.11, -1.6, -10.12, -10.12, -10.12, -10.43, -10.43, -9.71, -10.01, -10.43, -11.2, -11.28, -9.82, -8.93, -8.94, -8.58, -8.94, -9.58, -10.79, -11.21, -11.45, -12.52, -12.42, -12.0, -13.41, -12.96, -12.07, -12.07, -11.4, -10.38, -8.58, -6.44, -5.63, -6.64, -9.54, -12.0, -13.23, -13.01, -12.18, -11.21, -12.85, -14.53, -12.7, -10.12, -3.96, 0.0, 2.45, 1.04, 0.93, 0.0, 0.0, 0.0, 3.53, 6.87, 7.59, 8.24, 8.59, 7.44, 7.44, 7.44, 6.97, 5.98, 5.64, 6.5, 7.9, 7.9, 7.42, 6.98, 6.41, 7.06, 7.36, 6.0, 3.96, 4.04, 5.21, 5.23, 3.39, 0.0, -4.96, -5.69, 0.0, -2.93, -3.22, -5.59, -4.47, -3.4, -5.03, -8.38, -8.37, -9.77, -10.58, -10.73, -8.85, -8.85, -5.21, 5.1, 6.64, -1.54, -2.35, -3.25, -10.69, -10.12, -10.12, -11.1, -11.1, -10.43, -9.71, -11.1, -10.86, -11.28, -10.8, -9.21, -9.2, -8.58, -8.53, -9.58, -10.8, -11.2, -10.87, -11.5, -12.83, -14.3, -14.51, -15.58, -15.2, -14.75, -15.2, -14.19, -12.46, -10.32, -10.18, -8.4, -6.95, -7.87, -10.79, -13.44, -13.57, -12.11, -10.52, -9.48, -12.27, -11.6, -10.73, -8.38, -6.6, -4.99, -3.68, -2.61, -1.05, 0.0, 3.68, 6.7, 7.15, 7.9, 8.22, 8.22, 7.44, 7.44, 5.77, 5.86, 6.16, 6.5, 7.27, 6.44, 6.24, 6.44, 5.95, 5.69, 3.77, 3.08, 1.7, 1.71, 2.54, 2.5, 1.65, 1.64, 0.0, 0.0, 1.41, -1.93, -6.8, -8.24, -8.79, -9.04, -10.66, -11.49, -11.36, -11.39, -11.07, -10.12, -10.41, -11.45, 4.83, 4.37, -8.94, -4.96, -4.71, -4.8, -10.36, -10.69, -10.12, -10.77, -11.1, -10.43, -10.43, -11.1, -10.77, -11.37, -10.21, -9.64, -9.55, -9.58, -10.01, -8.73, -9.27, -9.96, -10.55, -9.48, -2.63, 0.0, -9.48, -15.55, -15.2, -15.2, -15.65, -16.09, -14.75, -13.41, -12.07, -12.07, -12.14, -10.73, -9.58, -11.55, -12.39, -10.32, -9.46, -8.93, -10.79, -12.74, -14.71, -15.19, -13.39, -10.12, -6.45, -4.15, 0.0, 3.82, 5.52, 6.98, 8.22, 7.44, 8.22, 8.22, 8.22, 7.56, 6.16, 6.16, 6.16, 5.69, 4.23, 4.23, 6.44, 6.7, 4.8, 2.49, 1.45, 0.0, 0.0, 0.0, 0.0, -0.84, -0.84, 0.8, 3.34, 4.99, 3.29, 1.1, -8.29, -12.07, -9.83, -10.73, -11.95, -12.3, -11.04, -11.16, -10.48, -9.53, -10.6, -0.0, 4.75, -0.0, -6.01, -4.94, -5.28, -5.28, -10.36, -10.69, -10.77, -10.77, -11.1, -10.43, -10.43, -10.43, -11.29, -10.79, -10.58, -11.28, -12.83, -12.42, -11.2, -10.87, -11.26, -11.37, -11.16, -9.48, 0.0, 0.0, 0.0, -4.52, -11.92, -11.06, -9.83, -13.67, -15.04, -14.16, -13.86, -15.2, -15.2, -13.59, -11.55, -10.4, -10.46, -10.6, -9.2, -8.72, -11.26, -13.56, -13.56, -11.87, -11.28, -11.18, -10.8, 0.0, 7.27, 8.38, 8.22, 8.38, 8.93, 8.22, 8.82, 8.22, 7.65, 6.86, 6.45, 5.64, 5.43, 4.36, 2.49, 3.82, 8.23, 7.27, 3.77, 2.33, 0.0, 0.0, 0.0, 0.0, 0.0, -0.82, 0.0, 0.0, 1.91, 2.44, 2.28, 2.08, 0.0, -14.23, -9.83, -8.82, -10.02, -10.85, -10.63, -9.4, -8.58, -7.87, -0.0, 3.22, 2.12, -7.63, -6.63, -5.1, -5.28, -5.38, -10.36, -10.36, -10.77, -10.77, -11.1, -10.43, -10.43, -11.03, -10.69, -10.62, -11.2, -11.92, -11.21, -12.97, -13.5, -13.01, -13.2, -14.1, -14.4, -13.01, -12.46, -11.26, -9.8, -9.16, -11.9, -11.03, -8.33, -10.73, -14.31, -14.3, -14.68, -16.48, -15.65, -13.86, -12.01, -10.75, -7.33, -7.96, -9.2, -8.0, -9.96, -12.58, -7.9, 0.0, 8.49, 8.49, 8.49, 9.75, 10.6, 9.46, 9.33, 8.55, 7.59, 7.9, 8.22, 7.65, 7.14, 5.98, 4.81, 3.97, 2.94, 2.71, 1.28, 4.37, 7.33, 6.42, 4.54, 3.82, 3.19, 1.91, 1.33, 0.0, 0.0, 0.0, 0.0, 0.0, -0.97, -1.84, -0.71, 0.0, 0.7, -0.92, -13.31, -7.37, -7.74, -8.4, -8.37, -7.9, -6.17, 0.0, 5.36, 0.0, -6.36, -7.6, -7.07, -5.49, -6.42, -5.94, -10.36, -10.36, -10.77, -11.1, -11.1, -10.43, -11.03, -10.43, -11.17, -10.47, -10.79, -11.88, -11.53, -12.54, -13.67, -13.57, -14.65, -15.02, -15.32, -16.77, -17.1, -17.06, -16.12, -13.37, -13.43, -12.3, -10.2, -10.28, -12.9, -13.86, -12.91, -12.68, -12.07, -10.91, -10.89, -12.07, -10.4, -7.47, -5.95, -3.97, 7.15, 8.8, 7.27, 8.8, 6.64, 6.01, 8.06, 8.24, 8.38, 8.82, 8.91, 6.64, 6.14, 5.98, 6.44, 6.86, 5.57, 3.82, 1.98, 0.97, 0.93, 0.0, 0.89, 5.86, 7.56, 6.98, 5.0, 5.4, 5.86, 3.82, 2.06, 0.0, 0.0, 0.0, 0.0, -0.77, -2.39, -3.53, -4.01, -4.55, -2.84, -0.7, -2.15, -12.04, -6.32, -3.2, -3.15, -3.15, 0.0, 2.06, 0.0, -6.79, -6.71, -6.71, -7.4, -5.94, -6.14, -5.59, -10.36, -10.36, -10.69, -11.1, -11.1, -11.03, -11.03, -10.43, -10.63, -10.38, -10.73, -11.28, -11.9, -11.17, -10.18, -10.31, -10.91, -13.33, -15.12, -16.31, -15.88, -15.4, -14.91, -15.38, -12.85, -11.92, -11.87, -6.85, -7.6, -6.71, -8.49, -6.61, -4.74, -6.26, -10.62, -10.28, -9.75, -6.52, -5.37, 8.05, 7.6, 7.6, 4.2, 0.0, 0.0, 0.0, 0.0, 8.49, 8.06, 8.0, 2.69, 1.75, 1.47, 2.83, 3.7, 2.83, 1.84, 0.93, 0.0, -0.85, -0.81, -0.77, 1.33, 6.95, 8.03, 6.44, 6.24, 6.08, 5.0, 3.02, 1.45, 0.77, 0.0, -0.89, -1.71, -2.47, -3.14, -4.87, -5.68, -7.11, -6.2, -3.07, -0.78, -8.85, -5.95, -1.84, -1.47, -1.54, 0.0, 0.0, -1.49, -4.56, -7.01, -6.64, -6.4, -6.64, -5.64, -5.37, -9.8, -10.36, -10.69, -11.64, -11.03, -11.03, -10.43, -10.63, -10.12, -10.25, -10.65, -11.34, -11.6, -11.87, -11.06, -9.95, -9.67, -10.3, -10.55, -11.05, -11.05, -10.55, -10.63, -9.48, -5.4, -1.07, 0.0, -0.69, -0.69, -0.71, -1.1, 0.0, 2.32, 0.96, -1.23, -5.6, -6.71, 6.8, 7.21, 7.6, 7.6, 0.0, -8.4, -4.96, -4.71, -6.7, -8.05, -8.49, -8.49, -8.06, -6.8, -6.44, -6.01, -3.68, -3.32, -4.2, -1.14, 0.0, -1.91, -2.18, -1.33, 0.0, 1.84, 6.64, 5.9, 3.39, 4.72, 5.4, 4.68, 4.47, 3.39, 3.11, 0.74, -0.85, -3.16, -4.65, -4.81, -5.4, -6.44, -6.7, -5.7, -4.71, -4.24, -4.24, -4.65, -4.65, -4.8, -3.11, -1.62, 0.0, 0.0, -1.4, -4.56, -6.0, -6.79, -6.53, -5.15, -5.06, -9.8, -10.36, -10.36, -10.69, -11.03, -10.69, -10.12, -10.12, -10.12, -10.12, -10.54, -10.54, -11.6, -11.49, -11.38, -10.15, -9.52, -9.12, -9.92, -9.67, -8.84, -7.58, -6.6, -3.79, -0.92, 0.87, 1.42, 1.36, 1.21, 1.77, 1.17, 0.0, 0.0, 0.0, 0.0, 5.6, 6.26, 7.15, 7.15, 7.6, 0.0, -7.15, -9.97, -10.0, -8.8, -8.8, -8.05, -9.83, -10.73, -10.73, -9.83, -10.58, -12.56, -12.39, -10.94, -10.4, -7.33, -2.54, -1.33, 0.0, 0.0, 0.0, 0.0, -4.4, -5.21, -2.39, 0.0, 1.28, 2.33, 3.65, 6.31, 6.31, 4.44, 1.09, -2.83, -5.0, -5.14, -4.92, -4.71, -4.78, -5.46, -6.18, -6.53, -6.57, -5.18, -6.51, -5.8, -5.52, -3.32, -1.25, -1.54, -1.07, -2.26, -4.47, -6.32, -6.11, -3.68, -3.0, -9.8, -10.36, -10.36, -10.69, -10.69, -10.69, -10.12, -10.12, -9.62, -10.12, -10.54, -10.87, -10.84, -11.14, -11.76, -11.29, -9.92, -9.17, -9.81, -9.54, -8.43, -7.71, -6.07, -4.62, -3.01, -1.5, -0.73, 0.0, 0.0, 0.0, 0.0, -0.63, -2.19, -1.25, 0.0, 7.6, 8.05, 7.37, 7.6, 5.06, 0.0, -3.8, -8.93, -9.6, -6.32, 0.0, -8.94, -8.49, -8.94, -9.83, -10.28, -9.89, -9.04, -7.6, -6.64, -7.5, -7.52, -6.45, -1.75, 2.83, -0.0, -6.64, -8.94, -8.94, -9.39, -9.64, -7.87, -5.06, -1.93, 3.49, 6.01, 6.05, 4.81, 2.33, -1.28, -3.11, -2.02, -2.02, -2.02, -1.69, -3.65, -5.46, -4.5, -4.5, -5.52, -7.36, -7.44, -5.75, -4.2, -1.67, -3.11, -3.35, -2.82, -2.99, -2.99, -2.26, -2.49, -2.49, -9.8, -9.8, -10.36, -10.69, -10.69, -10.69, -10.12, -10.12, -9.62, -9.67, -9.97, -10.43, -10.84, -10.75, -11.06, -10.98, -10.43, -10.19, -9.62, -9.17, -8.53, -8.16, -6.89, -5.23, -4.35, -2.83, -2.05, -0.64, 0.0, 0.0, 0.0, -0.61, -1.25, -1.28, 0.0, 7.15, 7.21, 6.8, 5.69, 3.6, 0.0, -3.2, -2.54, 0.0, 0.0, 8.05, 8.49, 0.0, 0.0, -8.05, -8.06, -6.8, -5.69, 0.0, 0.0, -5.06, -7.45, -7.28, -2.83, 0.0, -0.0, -0.0, 0.0, -8.05, -7.6, -8.05, -7.54, -8.72, 0.0, 6.64, 3.77, 1.76, 0.0, -1.28, -1.84, 10.0, 10.35, 8.53, 2.28, 0.0, -2.02, -1.93, -3.14, -2.69, -2.83, -4.14, -5.98, -5.9, -6.01, -4.83, -4.2, -3.97, -3.91, -2.99, -2.54, -2.64, -2.8, -2.8, -9.8, -9.8, -10.12, -10.36, -10.36, -10.12, -10.12, -10.43, -9.62, -9.67, -9.97, -10.01, -10.31, -10.31, -11.06, -10.18, -9.77, -9.92, -9.23, -8.61, -7.74, -6.85, -5.83, -4.62, -2.88, -2.0, -1.28, -1.19, -0.57, -0.59, -0.63, -0.65, -1.34, -2.56, -2.66, 0.0, 3.2, 2.26, 0.0, -2.4, -3.97, -4.74, -3.8, -2.54, 0.0, 8.94, 6.32, 6.01, 6.01, 8.49, 8.94, 8.94, 8.94, 8.94, 8.94, 8.94, 0.0, 0.0, 0.0, 0.0, 0.0, 9.39, 8.49, 8.05, 0.0, -6.58, -7.6, -7.89, -8.94, 1.67, 0.0, -2.71, -5.36, -5.77, 0.0, 11.95, 11.62, 9.69, 8.15, 5.2, 1.76, 0.0, 0.0, -2.54, -3.35, -4.46, -4.71, -7.07, -6.79, -5.44, -4.96, -4.46, -4.75, -4.68, -4.34, -3.79, -3.47, -3.47, -9.8, -9.8, -10.12, -10.69, -10.36, -9.8, -10.12, -10.12, -9.92, -9.97, -9.53, -9.82, -10.31, -10.31, -10.31, -9.82, -9.77, -9.66, -8.77, -7.04, -5.09, -4.85, -4.71, -3.13, -0.74, -0.67, -1.27, -1.83, -1.83, -1.86, -1.86, -1.97, -2.72, -3.42, -4.39, -4.14, -5.36, -4.43, -4.74, -5.06, -6.08, -7.2, -7.81, -8.06, -8.94, -0.0, -0.0, -0.0, 4.0, 8.4, 9.39, 9.39, 9.39, 9.39, 8.94, 9.39, 6.64, 6.64, 6.95, 0.0, 0.0, 9.39, 8.94, 8.06, 7.6, 6.79, -5.94, -7.45, -9.83, -7.9, -4.9, -4.47, -4.9, -3.96, 10.41, 12.52, 11.26, 8.67, 6.79, 5.78, 5.0, 3.61, 1.11, -3.7, -7.51, -8.24, -7.67, -6.01, -6.63, -6.32, -6.11, -4.71, -5.37, -6.32, -5.89, -4.87, -4.29, -4.29, -9.27, -9.8, -9.8, -10.12, -9.8, -9.8, -10.12, -10.12, -9.92, -9.44, -9.53, -9.82, -10.11, -10.11, -10.75, -11.36, -10.01, -9.67, -7.76, -4.81, -3.98, -5.09, -6.35, -6.36, -4.81, -4.01, -3.65, -5.37, -5.25, -4.34, -4.53, -4.49, -4.49, -4.53, -5.35, -6.14, -6.95, -7.72, -8.18, -7.6, -6.88, -7.5, -8.05, -7.2, -0.0, -0.0, -0.0, 4.2, 4.2, 6.64, 8.4, 8.4, 9.39, 8.94, 8.94, 8.4, 4.2, 0.0, 0.0, 0.0, 0.0, 0.0, 8.94, 6.08, 6.7, 6.52, 5.06, -6.94, -8.22, -8.24, -3.92, 0.0, 1.96, 3.22, 5.28, 2.54, 0.0, 0.0, 2.06, 2.71, 0.98, 0.0, 0.0, -3.87, -7.68, -8.79, -9.2, -9.52, -8.38, -7.95, -6.79, -5.82, -6.01, -7.06, -6.01, -5.37, -5.37, -5.37, -9.27, -9.27, -9.8, -9.8, -9.8, -9.8, -10.12, -10.12, -9.92, -9.44, -9.53, -9.82, -9.67, -10.11, -10.61, -10.31, -10.43, -10.92, -11.06, -8.43, -7.6, -7.47, -9.09, -11.16, -11.7, -10.22, -9.78, -8.93, -8.56, -7.84, -7.31, -6.79, -6.26, -6.26, -6.53, -7.32, -8.1, -8.22, -7.27, -5.69, -6.18, -8.41, -7.81, -1.63, -0.0, -0.0, 3.8, 4.0, 4.2, 6.64, 6.64, 8.48, 8.48, 8.94, 8.05, 7.6, 5.46, 0.0, 0.0, -4.4, 0.0, 0.0, 6.01, 6.01, 6.08, 5.72, 5.95, 5.06, 0.0, 0.0, 2.95, 4.93, 6.16, 4.55, 0.89, -5.31, -10.18, -9.36, -3.82, -1.84, -0.93, -0.98, -0.99, -2.58, -5.59, -7.6, -7.81, -7.37, -8.94, -8.05, -8.0, -8.06, -7.68, -7.44, -8.0, -7.44, -6.44, -6.44, -9.27, -9.27, -9.27, -9.8, -9.8, -9.8, -9.27, -10.12, -9.92, -9.73, -8.99, -9.82, -9.67, -9.67, -10.18, -10.61, -10.43, -10.92, -10.37, -11.68, -11.56, -11.03, -11.03, -11.38, -12.35, -12.01, -10.42, -10.69, -10.66, -9.92, -9.2, -8.04, -7.54, -7.02, -7.08, -7.4, -8.51, -8.1, -7.18, -5.39, -3.51, -4.66, -4.4, 0.0, 0.0, -0.0, 3.8, 4.0, 4.0, 4.0, 6.01, 6.01, 6.7, 8.06, 8.49, 6.7, 5.1, 3.8, 0.0, -8.94, 0.0, 3.8, 4.71, 4.71, 4.22, 3.97, 5.06, 7.6, 6.44, 7.28, 9.52, 9.32, 7.53, 3.41, 0.0, -6.78, -12.25, -11.16, -9.26, -6.41, -3.51, -1.76, -0.93, 0.0, 0.0, -8.49, -8.94, -7.6, -4.37, -6.01, -7.58, -9.81, -9.04, -7.28, -7.98, -7.73, -7.03, -7.03, -9.27, -9.27, -9.27, -9.27, -9.8, -9.8, -9.27, -9.57, -9.92, -9.73, -9.27, -9.82, -9.39, -9.67, -9.67, -10.11, -10.27, -10.43, -11.2, -12.4, -12.01, -11.36, -11.38, -11.72, -11.66, -11.17, -10.13, -9.61, -9.32, -9.57, -9.06, -8.3, -7.8, -7.26, -7.08, -7.6, -7.84, -7.85, -7.4, -5.75, -4.6, -2.63, -1.47, -0.77, -0.79, 0.0, 8.49, 6.01, 3.8, 2.54, 3.4, 5.69, 5.69, 7.63, 8.05, 7.63, 7.2, 8.94, 0.0, -0.0, 2.54, 5.1, 5.1, 4.71, 4.46, 5.37, 6.32, 7.21, 7.6, 9.39, 10.14, 10.01, 7.82, 5.36, -6.32, -12.74, -15.24, -14.54, -12.39, -9.78, -6.83, -3.81, -2.04, 0.0, 5.21, 8.94, -0.0, -9.39, -6.32, -4.56, -7.48, -8.65, -8.3, -6.91, -8.17, -7.31, -7.4, -7.4, -9.27, -9.27, -9.27, -9.27, -9.27, -9.27, -9.57, -9.57, -9.92, -9.73, -9.27, -9.27, -9.67, -9.67, -9.67, -10.11, -10.27, -10.43, -10.34, -10.94, -10.94, -9.97, -9.66, -10.4, -10.94, -10.0, -9.41, -8.35, -7.6, -7.2, -7.14, -7.14, -6.59, -6.59, -6.03, -6.03, -6.6, -7.48, -7.19, -6.29, -5.05, -3.82, -3.11, -1.75, -1.14, -0.58, 0.0, 0.0, -0.0, 3.2, 2.4, 5.37, 5.37, 7.21, 7.6, 7.6, 7.15, 7.81, -0.0, -0.0, 5.69, 6.01, 7.07, 7.07, 7.2, 7.45, 6.51, 6.71, 8.05, 7.44, 6.95, 7.27, 2.55, 1.2, -5.2, -9.83, -13.99, -15.18, -14.58, -12.81, -9.2, -6.73, -4.44, -1.33, 0.0, 0.0, -8.91, -9.39, -8.55, -7.72, -8.01, -7.9, -7.27, -3.6, -7.6, -6.52, -6.32, -6.32, -9.27, -9.27, -9.27, -9.27, -9.27, -9.27, -9.27, -9.57, -9.92, -9.73, -9.27, -9.54, -9.09, -9.67, -9.67, -9.54, -10.11, -10.01, -10.25, -10.23, -9.34, -9.59, -8.93, -8.51, -8.76, -9.34, -8.65, -7.8, -6.95, -6.77, -5.86, -5.65, -5.65, -5.09, -5.09, -5.09, -5.5, -5.9, -6.57, -5.47, -5.1, -4.16, -3.82, -3.07, -2.3, -1.71, -1.4, 0.0, -0.0, -0.0, 3.6, 4.22, 5.37, 6.32, 6.79, 6.94, 6.51, 6.79, -0.0, 0.0, 6.71, 3.2, 3.2, 6.4, 6.23, 5.73, 8.05, 8.67, 8.94, 6.01, -4.46, -3.77, -1.51, 0.0, 0.0, -10.28, -8.94, -12.04, -13.57, -13.47, -11.79, -8.95, -6.91, -5.44, -6.32, -8.94, -9.39, -9.26, -7.33, -4.2, -6.18, -5.31, -2.06, 4.22, 2.4, -4.56, -5.69, -5.69, -8.78, -8.78, -8.78, -9.27, -9.27, -9.27, -9.27, -9.06, -9.92, -9.73, -9.73, -9.27, -9.09, -9.09, -9.09, -9.54, -10.11, -10.31, -9.49, -9.78, -9.42, -9.07, -9.42, -8.62, -8.16, -7.84, -8.74, -8.35, -7.52, -6.77, -6.19, -5.81, -5.49, -4.77, -4.9, -4.9, -5.09, -5.57, -5.81, -5.4, -4.63, -4.2, -4.16, -3.82, -3.11, -2.97, -2.89, -3.11, -6.26, -0.0, 2.6, 4.22, 5.06, 5.95, 6.32, 5.95, 6.79, 5.21, 5.37, 0.0, 0.0, 0.0, -0.0, 5.81, 5.73, 8.05, 8.94, 9.39, 8.94, -7.63, -8.06, -5.9, -2.06, 0.76, 2.41, 3.47, 1.9, -7.9, -8.3, -11.45, -12.72, -11.55, -9.81, -8.23, -7.2, -8.05, -7.07, -6.32, -0.0, 4.0, 6.32, -2.69, 0.0, 0.0, 0.0, -2.26, -3.68, -3.68, -8.15, -8.15, -8.78, -8.78, -8.78, -9.27, -9.27, -9.06, -9.92, -9.44, -9.73, -9.27, -9.09, -9.09, -9.09, -9.09, -10.11, -9.67, -9.77, -9.5, -9.16, -8.93, -9.42, -8.86, -8.29, -8.06, -7.76, -7.88, -7.8, -7.52, -6.77, -5.96, -5.81, -5.6, -5.45, -4.73, -4.9, -5.09, -6.16, -6.0, -4.76, -4.63, -3.97, -3.65, -3.82, -3.25, -3.11, -3.09, -3.72, -4.43, 4.11, 3.79, 4.74, 5.72, 6.08, 5.37, 5.95, 5.95, 5.06, 0.0, -3.8, 0.0, 5.37, 7.15, 6.71, 8.94, 9.39, 9.39, 6.01, -7.2, -7.94, -6.95, -2.39, 0.0, 3.04, 6.35, 6.42, 0.96, -5.69, -8.67, -12.51, -13.35, -11.99, -8.93, -6.99, -7.63, 8.49, 8.33, 7.67, 6.63, 7.15, 0.0, -4.71, -2.82, -2.26, -1.4, -1.18, -1.18, -8.15, -8.15, -8.78, -8.78, -8.78, -8.78, -9.27, -9.27, -9.06, -9.44, -9.73, -9.27, -9.54, -8.83, -9.09, -9.09, -9.67, -9.67, -9.77, -9.39, -9.02, -8.68, -9.28, -9.17, -8.29, -7.97, -7.47, -7.67, -7.6, -7.6, -7.33, -7.33, -7.08, -6.84, -5.94, -5.94, -5.41, -5.41, -5.81, -5.92, -5.69, -5.17, -4.57, -4.16, -3.82, -3.25, -3.25, -2.97, -3.09, -2.72, -1.41, 5.36, 3.84, 4.37, 4.74, 5.72, 6.32, 5.06, 5.58, 6.0, 0.0, 0.0, 6.64, 6.64, 8.77, 8.94, 9.39, 8.94, 6.01, -8.49, -7.89, -6.98, -5.21, -0.85, 2.34, 5.38, 5.56, 4.17, -2.46, -7.54, -10.56, -13.47, -12.99, -9.6, -7.4, -6.4, 8.05, 8.49, 8.49, 8.38, 8.49, 8.06, -6.7, -6.79, -5.37, -2.82, -1.18, -1.18, -8.15, -8.15, -8.78, -8.78, -8.78, -8.78, -8.78, -8.78, -9.06, -9.16, -9.44, -9.27, -9.27, -8.83, -8.83, -8.83, -9.09, -9.67, -9.25, -9.39, -9.02, -9.02, -9.02, -8.5, -8.39, -7.76, -7.47, -7.47, -7.11, -7.11, -6.84, -7.4, -7.08, -7.08, -6.84, -5.94, -5.94, -5.56, -5.75, -5.86, -5.59, -5.32, -5.23, -3.94, -3.07, -2.39, -1.79, -2.39, -2.83, -2.89, -2.8, -1.05, 4.92, 3.78, 3.79, 3.76, 5.06, 5.06, 4.74, 4.02, 5.06, 8.05, 7.2, 6.52, 8.0, 9.75, 8.67, 0.0, -6.32, -8.94, -7.44, -6.64, -6.01, -5.21, -2.7, -0.79, 0.0, 0.77, 0.0, -7.21, -7.98, -12.79, -13.74, -10.58, -9.29, -4.2, 6.8, 8.05, 8.49, 8.05, 8.05, 6.01, 0.0, -7.2, -6.44, -5.69, -3.91, -3.91, -8.15, -8.15, -8.15, -8.78, -8.78, -8.78, -8.78, -9.06, -9.06, -9.06, -9.44, -9.27, -9.54, -9.54, -9.09, -8.83, -8.83, -8.99, -8.99, -8.61, -8.5, -8.5, -8.5, -8.5, -8.16, -7.84, -7.54, -7.47, -7.11, -7.11, -6.52, -7.11, -6.84, -6.89, -6.66, -6.14, -5.94, -6.1, -5.56, -5.81, -5.7, -5.77, -5.64, -4.71, -3.63, -1.24, -1.25, -2.39, -3.5, -3.3, -3.56, -2.82, -1.55, 4.66, 3.48, 2.86, 3.72, 5.06, 3.76, 3.45, 3.68, 6.7, 7.21, 7.07, 8.4, 9.26, 9.26, 8.94, -3.8, -6.32, -4.0, -1.54, -3.3, -6.11, -8.68, -8.37, -6.77, -3.16, -1.16, -5.36, -6.36, -11.38, -13.33, -12.08, -8.63, -7.6, 5.21, 5.37, 8.05, 0.0, 0.0, 0.0, 1.49, -1.84, -4.56, -5.69, -5.03, -5.03, -8.15, -8.15, -8.15, -8.78, -8.78, -8.78, -8.78, -9.06, -9.06, -9.06, -8.58, -9.27, -9.27, -9.54, -9.35, -9.09, -8.83, -8.99, -8.99, -8.61, -8.86, -8.86, -8.86, -8.5, -8.5, -8.16, -7.32, -7.26, -7.47, -6.92, -6.34, -6.34, -6.09, -6.42, -6.36, -6.66, -6.14, -5.94, -6.31, -6.31, -5.65, -5.92, -5.83, -5.46, -4.32, -2.69, -2.53, -4.24, -5.28, -5.6, -5.67, -5.72, -2.73, 0.0, 3.48, 2.53, 2.86, 3.49, 3.22, 2.8, 3.45, 5.37, 0.0, 0.0, 8.49, 8.38, 8.49, 9.54, 0.0, -7.6, -7.2, -1.32, 0.0, -1.63, -7.51, -10.12, -9.02, -6.97, -4.15, -1.45, -5.9, -9.6, -11.46, -12.13, -10.66, -6.01, 0.0, -0.0, -2.12, -3.2, -3.4, 0.0, 0.0, 0.0, -1.4, -3.8, -4.71, -4.71, -7.89, -7.89, -8.15, -8.78, -8.78, -8.78, -8.78, -9.06, -9.06, -9.34, -8.85, -8.58, -9.27, -9.27, -9.09, -9.09, -9.09, -8.68, -9.25, -8.86, -8.86, -8.86, -8.86, -8.86, -8.5, -8.16, -7.62, -7.11, -6.24, -6.16, -6.34, -6.16, -5.92, -5.92, -6.42, -6.71, -6.66, -6.66, -6.14, -6.31, -6.36, -6.06, -6.25, -5.7, -5.71, -5.76, -6.79, -6.64, -7.1, -7.16, -6.97, -6.34, -5.01, -2.95, 0.0, 3.48, 3.22, 3.12, 3.04, 1.84, 1.32, -0.0, -6.01, -0.0, 8.06, 7.47, 7.06, 8.49, 0.0, -1.73, -3.47, -3.2, 0.0, 1.48, -0.74, -6.8, -9.6, -7.44, -6.41, -3.68, -5.0, -8.93, -10.15, -11.03, -10.3, -7.36, -5.4, -4.6, -8.49, -3.0, -0.0, 0.0, 0.0, 1.25, 0.0, -1.26, -2.46, -2.46, -7.89, -7.89, -7.89, -7.69, -8.31, -8.31, -8.78, -9.06, -9.06, -9.34, -8.85, -8.85, -9.44, -9.54, -9.09, -9.09, -9.09, -8.93, -9.52, -9.52, -9.12, -9.12, -8.86, -8.86, -8.5, -8.16, -7.62, -7.46, -7.2, -6.32, -7.0, -6.92, -6.66, -6.47, -6.47, -6.94, -6.71, -6.66, -6.66, -6.36, -6.36, -6.02, -6.43, -6.33, -6.35, -7.27, -7.59, -7.59, -7.13, -6.94, -6.69, -5.69, -4.37, -3.78, -3.48, 0.0, 5.36, 3.22, 2.66, 1.84, -0.0, -0.0, -0.0, -0.0, 8.24, 7.47, 6.08, 5.69, 0.0, 0.0, 0.0, 0.0, -10.28, 0.0, 0.77, -1.53, -7.5, -8.69, -6.95, -6.21, -4.92, -5.99, -9.66, -7.56, -7.43, -6.76, -4.97, -4.08, -1.84, 0.0, 0.0, 8.49, 0.0, 0.0, 1.2, 0.0, 0.0, 0.0, -7.89, -7.89, -7.89, -7.69, -7.69, -8.31, -8.78, -9.06, -9.06, -9.34, -8.85, -8.85, -8.85, -8.99, -9.54, -9.09, -9.09, -9.09, -8.68, -8.93, -9.12, -9.12, -9.12, -8.86, -8.61, -8.26, -7.93, -7.46, -7.03, -7.76, -7.39, -7.26, -7.47, -7.2, -6.66, -6.66, -6.94, -6.89, -6.89, -6.89, -6.89, -6.71, -6.4, -6.96, -6.98, -6.87, -6.76, -6.68, -5.96, -5.64, -5.09, -5.38, -5.43, -4.84, -3.79, -2.0, 0.0, 4.92, 3.79, 2.53, 1.7, -0.0, -0.0, 7.6, 7.89, 7.2, 5.93, 4.56, -0.0, 0.0, 7.44, 9.39, -8.94, -5.7, -3.1, -1.55, -3.14, -9.96, -8.82, -5.64, -3.32, -1.17, 0.0, 0.0, -1.03, -2.02, -2.89, -1.89, 0.0, 0.0, 0.0, 0.0, 0.0, 0.0, 0.0, 0.0, 0.0, 0.0, -7.89, -7.89, -7.44, -7.44, -7.69, -8.31, -8.31, -9.06, -9.06, -9.34, -8.85, -9.12, -8.85, -8.99, -9.27, -9.09, -9.09, -9.09, -8.68, -8.93, -8.93, -9.17, -8.93, -8.53, -8.61, -8.26, -7.93, -7.69, -7.39, -7.88, -7.88, -7.82, -8.05, -7.26, -7.2, -6.66, -6.66, -6.94, -6.89, -7.14, -7.14, -6.89, -6.56, -6.92, -7.26, -6.87, -6.8, -6.2, -5.46, -5.17, -4.88, -5.63, -7.07, -6.13, -5.01, -2.6, -1.14, 0.0, 2.0, 4.02, 5.06, 5.37, 6.8, 7.63, 6.4, 6.08, 5.93, 5.06, 4.71, 8.0, 8.49, 9.33, 0.0, -6.17, -6.69, -3.86, 0.0, 2.2, 2.45, 0.0, -1.15, 0.0, 0.0, -1.06, -1.06, -0.77, -1.5, -0.75, 0.0, 0.0, 1.01, 0.0, 0.0, -1.84, -2.26, 0.0, 0.0, 0.0, -7.44, -7.44, -7.44, -7.44, -7.69, -7.69, -8.31, -8.58, -8.85, -8.85, -9.12, -9.12, -9.12, -8.4, -8.4, -8.83, -8.83, -8.83, -8.43, -8.68, -8.93, -8.93, -8.93, -8.93, -8.86, -8.26, -7.93, -7.69, -7.39, -8.12, -8.12, -7.62, -7.32, -7.32, -7.26, -6.47, -6.66, -6.66, -7.14, -7.14, -7.14, -6.71, -6.56, -6.46, -6.84, -6.87, -6.8, -6.0, -5.77, -5.32, -4.57, -5.18, -6.18, -5.44, -5.03, -2.66, -1.03, 0.0, 0.0, 1.08, 4.47, 7.6, 6.8, 7.21, 7.63, 7.2, 5.95, 6.08, 5.69, 7.07, 7.81, 9.33, 2.02, -1.58, -4.13, -2.41, 1.63, 5.79, 5.06, 1.72, -0.84, -2.81, -3.68, -3.81, -1.97, -1.45, -1.47, 0.0, 0.0, 0.0, 1.07, 1.49, 0.0, -4.46, -3.68, -2.4, -0.94, -0.94, -7.44, -7.44, -7.44, -7.44, -7.69, -7.69, -7.93, -8.58, -8.85, -8.85, -9.12, -9.12, -9.12, -8.4, -8.4, -9.27, -8.83, -8.83, -8.83, -8.68, -8.68, -8.93, -8.93, -8.93, -8.29, -8.61, -8.26, -7.69, -7.39, -7.62, -7.62, -7.62, -7.39, -6.6, -6.34, -6.53, -6.47, -6.47, -6.66, -6.94, -6.94, -6.94, -6.75, -6.0, -6.12, -6.45, -6.12, -6.04, -5.77, -5.32, -5.2, -5.04, -5.15, -5.38, -4.5, -2.99, -1.01, 0.0, 0.0, 0.0, 2.73, 4.92, 7.2, 5.95, 6.8, 8.49, 6.8, 8.24, 7.6, 7.6, 8.48, 8.05, 6.44, 2.61, 0.0, -0.89, 0.99, 3.36, 2.45, 0.71, -1.43, -3.59, -4.47, -5.0, -3.07, -1.39, -1.23, 0.0, 0.0, 0.0, 0.94, 1.25, 0.0, -2.69, -4.22, -3.4, -2.33, -2.33, -7.19, -7.19, -7.44, -7.44, -7.69, -7.69, -7.93, -7.93, -8.85, -8.85, -9.12, -9.12, -9.12, -8.65, -8.4, -8.4, -8.83, -8.83, -8.83, -8.68, -8.68, -8.68, -8.93, -8.93, -8.29, -8.61, -8.26, -7.69, -7.69, -7.62, -7.62, -7.62, -6.87, -6.87, -6.6, -6.34, -6.34, -6.53, -6.47, -6.66, -6.94, -6.94, -6.8, -5.48, -4.84, -5.52, -5.44, -5.36, -5.11, -5.32, -5.17, -5.23, -5.7, -5.15, -4.28, -3.27, -1.65, 0.0, 0.0, 0.0, 0.96, 4.09, 7.6, 6.79, 7.6, 8.94, 7.6, 8.05, 8.49, 8.05, 8.05, 8.05, 9.2, 3.96, 0.77, -1.65, -3.06, -2.62, -3.16, -3.55, -2.87, -2.18, -3.21, -4.6, -3.65, -1.62, 0.0, 0.0, 0.0, 0.94, 0.94, 1.01, 1.18, 0.0, -2.83, -3.2, -3.68, -2.54, -7.19, -7.19, -7.44, -7.44, -7.69, -7.69, -7.93, -7.93, -8.85, -8.85, -9.12, -9.12, -9.12, -8.65, -8.65, -8.4, -8.4, -8.83, -8.83, -8.68, -8.68, -8.68, -8.68, -8.93, -8.68, -8.06, -8.01, -8.01, -7.69, -7.39, -7.62, -7.39, -7.39, -6.87, -6.87, -6.6, -6.15, -6.53, -6.53, -6.73, -6.47, -6.94, -6.84, -5.72, -3.87, -4.54, -5.44, -5.83, -5.77, -5.8, -5.83, -5.89, -5.69, -5.72, -4.96, -4.07, -2.82, -0.76, 0.0, 0.0, 0.0, 2.2, 7.6, 6.71, 7.15, 8.49, 8.49, 7.6, 8.05, 8.05, 7.6, 7.6, 6.64, 1.11, 1.56, 0.0, -3.34, -6.72, -7.29, -6.28, -4.23, -2.1, -1.7, -1.28, -1.84, 0.0, 0.0, 0.0, 1.33, 1.28, 1.05, 0.89, 0.83, 0.0, -1.84, -3.6, -3.45, -3.68, -7.19, -7.19, -7.19, -7.44, -7.69, -7.69, -7.93, -7.93, -8.18, -8.85, -9.12, -9.12, -9.12, -8.65, -8.65, -8.4, -8.4, -7.98, -8.83, -8.83, -8.68, -8.68, -8.68, -8.68, -8.68, -8.06, -7.82, -8.01, -7.46, -7.17, -7.39, -7.39, -7.39, -7.39, -6.66, -6.6, -6.4, -6.15, -6.53, -5.99, -6.73, -6.47, -6.84, -6.12, -5.14, -4.6, -6.45, -7.36, -7.1, -7.13, -6.5, -6.29, -6.08, -5.72, -4.96, -4.56, -2.6, 0.0, 0.0, 0.0, 0.0, 0.96, 3.79, 7.6, 7.6, 8.05, 7.6, 7.37, 8.05, 8.05, 8.05, 5.69, -6.64, -1.69, 1.17, 4.81, 3.25, -1.7, -5.4, -5.71, -4.24, -2.82, -1.56, 0.0, 0.0, 1.69, 1.52, 1.64, 1.44, 1.28, 1.14, 1.0, 0.0, 0.0, 0.0, -2.99, -3.22, -3.45, -7.19, -7.19, -7.19, -7.44, -7.44, -7.69, -7.69, -7.93, -7.93, -8.18, -8.18, -8.18, -9.12, -8.65, -8.4, -8.4, -8.4, -7.98, -8.57, -8.83, -8.43, -8.43, -8.43, -8.68, -8.68, -8.68, -7.82, -7.77, -7.46, -7.46, -7.17, -7.39, -7.39, -7.39, -7.17, -6.66, -6.4, -6.2, -6.4, -6.05, -5.81, -5.75, -6.15, -6.35, -7.26, -7.38, -8.28, -8.68, -8.85, -8.2, -7.55, -6.94, -6.08, -5.9, -4.56, -4.07, -2.6, -0.65, 0.0, 0.0, 0.0, 0.0, 5.06, 6.4, 7.6, 7.6, 7.6, 8.49, 7.6, 8.05, 8.05, 0.0, -8.94, -4.96, 0.0, 3.29, 5.56, 3.07, 0.0, -3.14, -4.46, -4.0, -1.45, 0.0, 1.44, 1.44, 1.44, 1.44, 1.16, 1.16, 0.0, 0.0, 0.0, 0.0, -1.16, -1.32, -2.49, -2.49, -6.94, -6.94, -7.19, -7.19, -7.44, -7.44, -7.69, -7.93, -7.93, -7.93, -8.18, -8.18, -8.18, -8.4, -8.4, -8.4, -8.4, -7.98, -7.98, -8.57, -8.83, -8.43, -8.43, -8.43, -8.43, -8.43, -7.82, -8.1, -7.77, -7.23, -6.94, -6.94, -7.17, -7.46, -7.17, -6.45, -6.2, -6.0, -6.2, -5.87, -5.87, -5.63, -5.69, -6.08, -7.24, -7.85, -8.04, -8.72, -8.49, -8.22, -7.57, -6.96, -5.72, -5.52, -4.8, -4.07, -1.44, -0.63, -0.59, 0.0, 0.0, 0.0, 0.0, 5.37, 7.6, 7.6, 8.05, 8.05, 7.15, 8.05, 8.49, 0.0, -9.39, -7.6, -6.64, -3.25, 0.0, 1.53, 2.3, 2.16, 1.84, 1.91, 1.71, 1.25, 0.0, 0.0, 0.0, 0.0, 0.0, 0.0, 0.0, 0.0, 0.0, -0.89, -1.84, -2.69, -2.69, -2.69, -6.94, -6.94, -7.19, -7.19, -7.44, -7.44, -7.69, -7.69, -7.69, -7.93, -7.93, -8.18, -8.18, -8.85, -8.4, -8.4, -8.4, -7.98, -7.98, -8.57, -8.83, -8.83, -8.43, -8.43, -8.43, -8.43, -8.18, -7.58, -7.53, -7.23, -6.99, -6.72, -6.72, -7.23, -7.46, -6.72, -6.25, -6.0, -6.0, -5.5, -5.69, -5.46, -5.5, -5.4, -5.89, -6.3, -6.4, -6.89, -6.72, -6.53, -6.29, -5.69, -5.34, -4.73, -4.5, -4.0, -1.95, -1.25, -0.58, -0.56, -0.58, -0.67, 0.0, 0.0, 6.8, 6.8, 8.05, 8.05, 7.15, 7.6, 8.05, 0.0, -8.94, -8.4, -7.33, -6.64, -4.13, -0.77, 1.56, 4.81, 7.23, 7.25, 5.72, 3.01, 0.0, -1.2, -3.07, -2.95, -2.6, -2.0, -2.0, -1.62, -1.54, -2.47, -2.35, -2.83, -2.83, -2.83, -6.94, -6.94, -7.19, -7.19, -7.44, -7.44, -7.69, -7.69, -7.93, -7.93, -7.93, -8.18, -8.18, -8.18, -8.4, -8.4, -8.4, -7.98, -7.98, -7.98, -8.83, -8.83, -8.83, -8.43, -8.43, -8.43, -8.18, -7.58, -7.53, -7.29, -6.99, -6.99, -6.99, -6.99, -6.99, -6.99, -6.5, -6.25, -6.0, -6.0, -5.5, -5.5, -5.14, -4.72, -5.0, -5.14, -5.2, -4.98, -5.5, -5.17, -5.23, -5.06, -4.96, -4.96, -4.28, -3.27, -2.54, -1.81, -1.16, -1.09, -1.2, -1.16, -0.76, 0.0, 3.6, 7.2, 7.2, 6.79, 7.6, 7.37, 8.48, 8.49, -8.94, -6.64, -6.95, -6.64, -4.6, -0.83, 1.57, 6.28, 11.08, 11.57, 8.9, 5.13, 2.06, 0.0, -1.64, -6.2, -5.32, -4.36, -3.34, -2.35, -2.59, -3.36, -3.21, -2.98, -2.98, -2.98, -6.94, -6.94, -7.19, -7.19, -7.19, -7.44, -7.44, -7.69, -7.93, -7.93, -7.93, -7.93, -8.18, -8.18, -7.73, -8.4, -8.4, -7.98, -7.98, -7.98, -7.98, -8.83, -8.83, -8.83, -8.83, -8.43, -8.18, -7.58, -7.85, -7.53, -6.99, -6.76, -6.76, -6.76, -6.76, -6.76, -6.76, -6.5, -6.25, -5.8, -5.8, -5.32, -5.14, -4.54, -5.0, -5.4, -5.27, -5.03, -4.81, -4.68, -4.54, -4.63, -4.69, -4.71, -4.32, -3.85, -3.09, -2.54, -2.23, -1.71, -1.73, -1.14, -0.67, 0.0, 1.14, 3.8, 7.2, 6.4, 7.6, 7.81, 7.63, 8.49, 0.0, -4.2, -4.2, -4.2, -3.25, 0.0, 4.12, 8.85, 10.43, 9.99, 7.22, 4.94, 4.62, 3.47, 1.04, -3.68, -6.71, -6.16, -4.18, -2.99, -4.0, -3.49, -3.45, -3.4, -3.4, -3.4, -6.94, -6.94, -7.19, -7.19, -7.44, -7.44, -7.44, -7.69, -7.69, -7.93, -7.93, -7.93, -8.18, -8.18, -7.73, -8.4, -8.4, -7.98, -7.98, -7.98, -7.98, -8.83, -8.83, -8.83, -8.83, -8.43, -8.18, -7.93, -7.85, -7.53, -6.99, -6.76, -6.76, -6.53, -6.53, -6.53, -6.53, -6.53, -6.04, -6.04, -6.04, -5.8, -5.14, -4.72, -5.0, -4.84, -5.33, -5.08, -4.86, -4.72, -4.08, -3.94, -4.0, -4.45, -3.85, -3.64, -3.14, -3.14, -2.4, -2.26, -1.63, -1.14, -1.16, 0.0, 1.05, 3.8, 5.37, 5.69, 8.49, 8.05, 8.49, 8.49, 0.0, 0.0, 0.0, 0.0, 0.0, 5.0, 9.3, 10.4, 9.3, 7.0, 6.36, 7.14, 7.21, 5.17, 2.2, -0.83, -5.92, -7.27, -4.68, -3.64, -2.6, -2.8, -3.72, -6.0, -6.0, -6.0, -6.94, -6.94, -7.19, -7.19, -7.19, -7.44, -7.69, -7.69, -7.69, -7.69, -7.93, -7.93, -7.93, -7.73, -7.73, -8.4, -8.4, -7.98, -7.98, -7.74, -7.74, -7.98, -8.83, -8.83, -8.83, -8.83, -8.18, -7.93, -7.85, -7.53, -7.29, -6.99, -6.76, -6.53, -6.53, -6.29, -6.29, -6.53, -6.53, -5.83, -5.83, -5.83, -5.36, -4.72, -5.0, -4.84, -4.77, -5.08, -4.37, -4.26, -3.77, -3.61, -3.49, -4.0, -3.85, -3.64, -3.14, -2.44, -2.44, -1.76, -1.23, -1.26, -0.67, 0.0, 0.0, 3.6, 3.4, 6.8, 7.2, 7.2, 8.0, 8.49, 6.32, 6.64, 9.39, 9.83, 8.18, 9.2, 10.05, 9.77, 7.65, 5.67, 7.8, 10.23, 9.37, 5.58, 2.76, 0.0, -7.59, -7.33, -5.24, -3.79, -2.73, 0.0, -0.0, -2.66, -2.66, -2.66, -6.94, -6.94, -7.19, -7.19, -7.19, -7.44, -7.69, -7.69, -7.69, -7.93, -7.93, -7.93, -8.18, -7.73, -7.73, -8.4, -8.4, -8.4, -7.98, -7.98, -7.98, -7.98, -8.22, -8.83, -8.83, -8.57, -8.18, -7.93, -7.85, -7.6, -7.29, -6.99, -6.76, -6.53, -6.53, -6.56, -6.56, -6.29, -6.29, -6.08, -5.83, -5.83, -5.17, -5.2, -4.95, -5.6, -5.52, -5.08, -4.21, -4.08, -3.82, -3.11, -3.31, -3.16, -3.8, -3.6, -3.14, -2.44, -1.76, -1.93, -1.36, -0.72, -0.76, 0.0, 0.0, 0.0, 3.0, 5.06, 6.32, 7.07, 4.96, 9.39, 4.2, 4.2, 6.64, 9.39, 9.39, 9.83, 9.89, 8.93, 6.24, 6.67, 7.54, 9.31, 8.01, 5.65, 0.69, 0.0, -1.25, -2.16, -3.49, -4.11, 0.0, -0.0, -1.52, -1.1, -1.1, -1.1, -6.94, -6.94, -7.19, -7.19, -7.19, -7.44, -7.69, -7.69, -7.69, -7.93, -7.93, -7.93, -8.18, -7.73, -7.73, -7.73, -8.4, -8.4, -7.98, -7.98, -7.98, -7.98, -8.22, -8.83, -8.57, -8.57, -8.57, -7.93, -8.2, -7.85, -7.29, -7.29, -6.76, -6.53, -6.8, -6.56, -6.56, -6.56, -6.29, -5.86, -5.86, -5.86, -5.4, -5.2, -5.14, -5.33, -5.52, -5.08, -4.21, -4.08, -3.25, -2.7, -2.7, -3.21, -3.56, -3.6, -3.09, -2.6, -1.88, -1.12, -0.64, -0.72, 0.0, 0.0, 0.0, 0.0, 0.0, 4.74, 5.95, 5.69, 4.71, 4.0, 9.39, -0.0, -0.0, 6.64, 9.39, 9.39, 9.39, 7.68, 5.7, 5.98, 6.86, 5.48, 4.7, 1.38, 0.0, 0.0, -0.73, 0.0, -1.23, -3.0, -5.36, -5.36, -4.11, -2.32, -2.32, -2.32, -6.94, -6.94, -6.94, -7.19, -7.19, -7.19, -7.44, -7.69, -7.69, -7.93, -7.93, -8.18, -8.18, -7.73, -7.73, -7.73, -8.4, -8.4, -7.98, -7.98, -7.98, -7.98, -7.98, -8.57, -8.57, -8.57, -8.57, -7.93, -8.2, -7.85, -7.29, -7.29, -6.76, -6.76, -6.8, -6.56, -6.56, -6.31, -5.89, -5.89, -5.64, -5.86, -5.2, -5.44, -5.14, -5.33, -5.52, -5.08, -5.14, -4.48, -3.82, -3.31, -2.7, -3.21, -3.56, -3.37, -3.09, -2.4, -1.84, -1.76, -1.14, -0.72, -0.76, 0.0, -1.05, -1.3, 0.0, 0.0, 4.74, 5.06, 5.37, 6.01, 8.4, 9.83, 3.11, 2.97, 6.64, 8.48, 9.39, 6.64, 6.14, 5.46, 5.1, 1.64, 0.0, -0.71, -0.82, -1.58, -4.0, -1.55, 0.0, -2.4, -6.26, -4.66, -4.84, -3.2, -3.2, -3.2, -6.94, -6.94, -6.94, -7.19, -7.19, -7.19, -7.44, -7.69, -7.69, -7.93, -7.93, -8.18, -8.18, -7.73, -7.73, -7.73, -8.4, -8.4, -7.98, -7.98, -7.98, -7.98, -7.98, -8.57, -8.57, -8.57, -8.31, -8.31, -7.69, -7.6, -7.6, -7.04, -7.04, -7.04, -6.8, -6.56, -6.56, -6.31, -5.89, -5.89, -5.89, -5.64, -5.2, -5.23, -4.95, -4.95, -5.14, -5.14, -4.6, -4.48, -3.98, -3.46, -2.7, -3.37, -3.75, -3.56, -2.89, -3.09, -2.4, -1.73, -1.65, -1.26, -0.82, -0.96, -0.96, -2.16, -3.0, -4.43, -6.71, 0.0, 0.0, 0.0, 6.01, 8.0, 4.4, 2.97, 6.64, 8.48, 9.39, 6.64, 5.9, 5.06, 4.05, -0.76, -0.71, -1.43, 0.0, -8.4, -5.2, -4.47, -2.73, -3.97, -6.71, -3.79, -5.37, -3.8, -3.8, -3.8, -6.94, -6.94, -6.94, -6.94, -7.19, -7.19, -7.44, -7.44, -7.69, -7.69, -7.93, -7.93, -8.18, -8.18, -7.73, -7.73, -8.4, -8.4, -8.4, -8.22, -7.98, -7.98, -8.57, -8.57, -8.57, -8.31, -8.31, -8.31, -7.69, -7.93, -7.6, -7.04, -7.04, -6.8, -6.8, -6.56, -6.84, -6.58, -5.92, -5.67, -5.89, -5.89, -5.23, -5.23, -4.57, -4.76, -4.95, -4.95, -4.43, -4.15, -4.23, -3.46, -3.31, -4.12, -4.2, -4.0, -3.56, -3.05, -3.09, -2.4, -2.29, -1.8, -1.52, -1.72, -1.98, -1.98, -2.99, -4.11, -7.15, 0.0, 0.0, 0.0, 0.0, 0.0, -0.0, 4.0, -0.0, 0.0, 0.0, 0.0, 2.97, 1.93, 0.0, 0.0, 0.69, 0.69, 0.0, -8.05, -3.6, -4.02, -4.4, -5.95, -7.21, -5.37, -6.32, -5.36, -5.36, -5.36, -7.36, -7.36, -6.94, -6.94, -6.94, -7.19, -7.44, -7.69, -7.69, -7.69, -7.69, -7.93, -8.18, -8.18, -7.73, -7.73, -7.73, -8.4, -8.4, -8.22, -8.22, -7.98, -7.98, -8.57, -8.31, -8.31, -8.31, -8.05, -7.69, -7.93, -7.6, -7.34, -7.04, -6.8, -6.8, -6.84, -6.84, -6.58, -5.92, -5.92, -5.67, -5.67, -5.67, -5.23, -5.02, -4.57, -4.57, -4.57, -4.3, -3.98, -3.61, -3.46, -3.87, -4.4, -4.4, -4.2, -3.75, -3.75, -3.56, -3.18, -2.75, -2.49, -2.54, -2.2, -2.64, -2.64, -3.0, -3.49, -6.4, -7.15, -5.69, 0.0, 0.0, 0.0, -0.0, -3.8, -7.2, -8.94, -7.81, -5.21, -4.0, 0.0, 0.0, 2.23, 3.18, 3.25, 2.06, -4.46, -4.24, -4.87, -6.26, -8.05, -7.63, -7.44, -6.64, -5.1, -5.1, -5.1, -7.36, -7.36, -7.36, -6.94, -6.94, -6.94, -7.19, -7.44, -7.44, -7.44, -7.69, -7.93, -7.93, -8.18, -7.73, -7.73, -7.73, -8.4, -8.4, -8.22, -8.22, -8.22, -8.22, -8.57, -8.31, -8.31, -8.31, -8.05, -8.05, -7.93, -7.34, -7.34, -6.8, -6.8, -6.8, -6.84, -6.84, -6.58, -5.92, -5.92, -5.92, -5.92, -5.67, -5.26, -5.26, -4.57, -4.57, -4.57, -4.12, -3.82, -4.05, -3.69, -4.87, -4.88, -4.88, -4.2, -4.45, -4.24, -4.03, -3.37, -3.6, -2.96, -3.26, -3.0, -3.0, -2.64, -2.64, -3.0, -4.43, -6.8, -5.37, 0.0, -6.01, 0.0, -0.0, -0.0, -8.48, -8.94, -8.77, -8.0, -8.0, -4.6, -1.16, 0.0, 2.35, 2.54, 4.22, -0.0, -1.19, -4.19, -5.95, -6.79, -6.64, -8.91, -8.4, -8.4, -8.4, -8.4, -7.36, -7.36, -7.36, -6.94, -7.19, -7.19, -7.19, -7.19, -7.44, -7.44, -7.69, -7.93, -7.93, -8.18, -8.18, -7.73, -7.73, -8.4, -8.4, -7.98, -8.22, -8.22, -8.83, -8.57, -8.31, -8.31, -8.31, -8.05, -7.79, -7.93, -7.67, -7.09, -7.09, -6.8, -6.84, -6.84, -6.84, -6.87, -6.45, -5.92, -5.92, -5.69, -5.69, -5.26, -5.26, -5.26, -4.8, -4.6, -4.12, -4.05, -4.31, -3.69, -4.87, -4.88, -4.88, -4.4, -4.45, -4.24, -4.24, -4.03, -4.05, -3.64, -3.68, -3.47, -3.79, -3.2, -3.55, -3.55, -3.45, -6.4, -5.37, -6.8, -7.2, -8.05, -0.0, -6.01, -8.06, -8.94, -8.82, -8.82, -8.06, -6.98, -5.21, -2.49, 0.0, 0.0, 0.0, 3.48, 3.22, -0.0, -4.6, -5.86, -8.4, -9.39, -9.21, -9.21, -9.21, -9.21, -7.36, -7.36, -7.36, -7.36, -7.19, -7.19, -7.19, -7.44, -7.44, -7.44, -7.69, -7.69, -7.93, -8.18, -8.18, -7.73, -7.73, -8.4, -8.4, -8.65, -8.22, -8.22, -8.83, -8.57, -8.31, -8.31, -8.05, -8.05, -7.79, -7.67, -7.67, -7.09, -7.09, -6.84, -6.84, -6.84, -6.58, -6.87, -6.45, -6.2, -6.2, -5.69, -5.69, -5.26, -5.26, -5.26, -4.8, -4.6, -4.35, -4.05, -4.31, -4.4, -5.18, -4.66, -4.4, -4.4, -4.45, -4.45, -4.24, -4.03, -4.05, -4.08, -4.1, -3.68, -3.97, -3.79, -3.79, -3.55, -4.47, -5.06, -6.4, -6.79, -6.4, -7.6, -7.2, -8.06, -8.49, -8.49, -8.49, -8.49, -8.82, -8.4, -7.21, -4.4, -3.11, -0.74, 0.0, 0.0, 4.43, 4.71, -0.0, -6.95, -8.72, -9.39, -9.39, -9.39, -9.39, -9.39, -7.36, -7.36, -7.36, -7.36, -7.62, -7.19, -7.19, -7.44, -7.44, -7.44, -7.69, -7.69, -7.93, -7.93, -8.18, -7.5, -7.5, -8.4, -8.4, -8.4, -8.22, -8.22, -8.83, -8.83, -8.31, -8.05, -8.05, -8.05, -7.79, -8.01, -7.67, -7.4, -7.09, -6.84, -6.84, -6.84, -7.14, -6.87, -6.45, -6.2, -6.2, -5.95, -5.52, -5.52, -5.26, -5.26, -5.04, -4.6, -4.35, -4.6, -4.31, -4.96, -4.96, -4.4, -4.12, -3.93, -4.45, -4.45, -4.45, -4.5, -4.28, -4.32, -4.08, -3.68, -3.97, -3.97, -4.29, -4.03, -4.22, -5.06, -5.01, -6.32, -5.06, -5.06, -7.6, -8.05, -8.33, -8.24, -8.0, -8.94, -8.94, -8.91, -7.21, -5.06, -3.82, -2.28, -0.76, -1.33, 0.0, 6.01, 6.64, -4.4, -8.18, -9.83, -9.39, -9.39, -9.39, -9.39, -7.36, -7.36, -7.36, -7.36, -7.36, -7.19, -7.19, -7.19, -7.44, -7.44, -7.69, -7.69, -7.93, -7.93, -7.93, -7.5, -7.5, -8.14, -8.4, -8.4, -7.98, -8.22, -8.22, -8.57, -8.31, -8.05, -8.05, -7.79, -7.79, -8.01, -7.67, -7.4, -6.84, -6.84, -6.84, -6.84, -7.14, -6.45, -6.45, -6.76, -6.5, -6.2, -5.75, -5.52, -5.52, -5.26, -5.04, -4.84, -4.35, -4.6, -4.66, -5.46, -4.96, -4.4, -4.4, -3.61, -4.2, -4.0, -4.73, -4.5, -4.8, -4.07, -4.14, -3.91, -4.22, -4.22, -4.56, -4.56, -4.68, -4.75, -4.74, -6.32, -4.74, 0.0, 0.0, -7.6, -7.89, -7.07, -7.07, -8.67, -8.94, -8.91, -7.64, -6.04, -4.75, -3.07, -0.76, 0.0, 0.0, 0.0, 0.0, 9.39, 0.0, -6.64, -6.64, -6.32, -6.32, -6.32, -7.36, -7.36, -7.62, -7.62, -7.62, -7.62, -7.19, -6.53, -6.53, -7.44, -7.44, -7.69, -7.93, -7.93, -7.93, -7.5, -7.5, -8.14, -8.14, -8.4, -8.4, -7.98, -7.98, -7.98, -8.31, -8.05, -8.05, -7.79, -7.79, -7.54, -7.67, -7.4, -7.14, -6.84, -6.84, -6.87, -6.87, -6.45, -6.76, -6.5, -6.5, -6.5, -6.04, -5.52, -5.52, -5.52, -5.52, -4.84, -5.1, -4.87, -5.46, -5.46, -5.46, -4.96, -4.2, -3.61, -3.88, -4.28, -4.28, -4.28, -4.28, -4.37, -4.12, -3.91, -3.69, -3.69, -4.22, -4.83, -5.24, -5.37, -4.74, -3.49, -2.4, 0.0, 0.0, -7.6, -7.2, -7.07, -8.06, -8.49, -8.3, -8.0, -7.64, -5.76, -4.68, -3.14, -0.78, 0.0, 0.0, 0.0, 0.0, 0.0, 2.28, 0.0, 0.0, 0.0, 0.0, 0.0, -7.36, -7.36, -7.62, -7.62, -7.62, -7.62, -7.19, -6.53, -6.53, -7.44, -7.44, -7.69, -7.93, -7.93, -7.93, -7.5, -7.5, -8.14, -8.14, -8.4, -8.4, -7.98, -7.98, -7.98, -8.31, -8.05, -8.05, -7.79, -7.79, -7.54, -7.67, -7.4, -7.14, -6.84, -6.84, -6.87, -6.87, -6.45, -6.76, -6.5, -6.5, -6.5, -6.04, -5.52, -5.52, -5.52, -5.52, -4.84, -5.1, -4.87, -5.46, -5.46, -5.46, -4.96, -4.2, -3.61, -3.88, -4.28, -4.28, -4.28, -4.28, -4.37, -4.12, -3.91, -3.69, -3.69, -4.22, -4.83, -5.24, -5.37, -4.74, -3.49, -2.4, 0.0, 0.0, -7.6, -6.79, -7.07, -8.06, -8.49, -8.3, -8.0, -6.87, -6.18, -4.6, -2.99, -1.55, 0.0, 0.83, 1.7, 1.84, 1.16, 1.33, 1.33, 0.0, 0.0, 0.0, 0.0]}]